<?xml version="1.0" encoding="UTF-8" standalone="no" ?>
<gpx xmlns="http://www.topografix.com/GPX/1/1" xmlns:xsi="http://www.w3.org/2001/XMLSchema-instance" xsi:schemaLocation="http://www.topografix.com/GPX/1/1 http://www.topografix.com/GPX/1/1/gpx.xsd" version="1.1" creator="VisuGPX - https://www.visugpx.com">
  <metadata>
    <name>vtt côllo 38km</name>
    <desc><![CDATA[21:28:14

comment ...]]></desc>
  </metadata>
  <trk>
    <name><![CDATA[vtt côllo 38km]]></name>
    <desc><![CDATA[comment ...]]></desc>
    <extensions>
      <line xmlns="http://www.topografix.com/GPX/gpx_style/0/2">
        <color>0000FF</color>
        <width>4</width>
      </line>
    </extensions>
    <trkseg>
      <trkpt lat="43.23784" lon="6.30201">
        <ele>145</ele>
        <time>2021-03-11T20:28:14Z</time>
      </trkpt>
      <trkpt lat="43.2378" lon="6.30192">
        <ele>144.3</ele>
        <time>2021-03-11T20:28:14Z</time>
      </trkpt>
      <trkpt lat="43.23777" lon="6.30136">
        <ele>146.7</ele>
        <time>2021-03-11T20:28:14Z</time>
      </trkpt>
      <trkpt lat="43.2376" lon="6.30161">
        <ele>147.1</ele>
        <time>2021-03-11T20:28:14Z</time>
      </trkpt>
      <trkpt lat="43.23721" lon="6.30186">
        <ele>149.2</ele>
        <time>2021-03-11T20:28:14Z</time>
      </trkpt>
      <trkpt lat="43.23709" lon="6.30189">
        <ele>148.6</ele>
        <time>2021-03-11T20:28:14Z</time>
      </trkpt>
      <trkpt lat="43.23695" lon="6.30187">
        <ele>150</ele>
        <time>2021-03-11T20:28:14Z</time>
      </trkpt>
      <trkpt lat="43.23666" lon="6.30206">
        <ele>147.5</ele>
        <time>2021-03-11T20:28:14Z</time>
      </trkpt>
      <trkpt lat="43.23572" lon="6.30351">
        <ele>152.6</ele>
        <time>2021-03-11T20:28:14Z</time>
      </trkpt>
      <trkpt lat="43.23536" lon="6.30439">
        <ele>153.2</ele>
        <time>2021-03-11T20:28:14Z</time>
      </trkpt>
      <trkpt lat="43.2353" lon="6.30503">
        <ele>153.8</ele>
        <time>2021-03-11T20:28:14Z</time>
      </trkpt>
      <trkpt lat="43.23529" lon="6.30743">
        <ele>155</ele>
        <time>2021-03-11T20:28:14Z</time>
      </trkpt>
      <trkpt lat="43.23506" lon="6.30884">
        <ele>157.8</ele>
        <time>2021-03-11T20:28:14Z</time>
      </trkpt>
      <trkpt lat="43.23516" lon="6.30949">
        <ele>161.3</ele>
        <time>2021-03-11T20:28:14Z</time>
      </trkpt>
      <trkpt lat="43.2351" lon="6.30961">
        <ele>162.4</ele>
        <time>2021-03-11T20:28:14Z</time>
      </trkpt>
      <trkpt lat="43.23495" lon="6.30964">
        <ele>163.3</ele>
        <time>2021-03-11T20:28:14Z</time>
      </trkpt>
      <trkpt lat="43.23482" lon="6.30958">
        <ele>163.1</ele>
        <time>2021-03-11T20:28:14Z</time>
      </trkpt>
      <trkpt lat="43.23473" lon="6.30953">
        <ele>162.9</ele>
        <time>2021-03-11T20:28:14Z</time>
      </trkpt>
      <trkpt lat="43.23428" lon="6.30955">
        <ele>165.2</ele>
        <time>2021-03-11T20:28:14Z</time>
      </trkpt>
      <trkpt lat="43.234" lon="6.30965">
        <ele>165.4</ele>
        <time>2021-03-11T20:28:14Z</time>
      </trkpt>
      <trkpt lat="43.23383" lon="6.30974">
        <ele>164.9</ele>
        <time>2021-03-11T20:28:14Z</time>
      </trkpt>
      <trkpt lat="43.23334" lon="6.30971">
        <ele>174</ele>
        <time>2021-03-11T20:28:14Z</time>
      </trkpt>
      <trkpt lat="43.23325" lon="6.30969">
        <ele>177.7</ele>
        <time>2021-03-11T20:28:14Z</time>
      </trkpt>
      <trkpt lat="43.23267" lon="6.30933">
        <ele>190.9</ele>
        <time>2021-03-11T20:28:14Z</time>
      </trkpt>
      <trkpt lat="43.23259" lon="6.30923">
        <ele>191.4</ele>
        <time>2021-03-11T20:28:14Z</time>
      </trkpt>
      <trkpt lat="43.23252" lon="6.30918">
        <ele>191.2</ele>
        <time>2021-03-11T20:28:14Z</time>
      </trkpt>
      <trkpt lat="43.23214" lon="6.30922">
        <ele>202.9</ele>
        <time>2021-03-11T20:28:14Z</time>
      </trkpt>
      <trkpt lat="43.23205" lon="6.30881">
        <ele>208</ele>
        <time>2021-03-11T20:28:14Z</time>
      </trkpt>
      <trkpt lat="43.23177" lon="6.30838">
        <ele>214.3</ele>
        <time>2021-03-11T20:28:14Z</time>
      </trkpt>
      <trkpt lat="43.23173" lon="6.30827">
        <ele>216.3</ele>
        <time>2021-03-11T20:28:14Z</time>
      </trkpt>
      <trkpt lat="43.23172" lon="6.30811">
        <ele>218.9</ele>
        <time>2021-03-11T20:28:14Z</time>
      </trkpt>
      <trkpt lat="43.23174" lon="6.30797">
        <ele>221.6</ele>
        <time>2021-03-11T20:28:14Z</time>
      </trkpt>
      <trkpt lat="43.23183" lon="6.30777">
        <ele>224.7</ele>
        <time>2021-03-11T20:28:14Z</time>
      </trkpt>
      <trkpt lat="43.2319" lon="6.30767">
        <ele>225.2</ele>
        <time>2021-03-11T20:28:14Z</time>
      </trkpt>
      <trkpt lat="43.23213" lon="6.30746">
        <ele>225.9</ele>
        <time>2021-03-11T20:28:14Z</time>
      </trkpt>
      <trkpt lat="43.23213" lon="6.30735">
        <ele>228.1</ele>
        <time>2021-03-11T20:28:14Z</time>
      </trkpt>
      <trkpt lat="43.23154" lon="6.30752">
        <ele>238.8</ele>
        <time>2021-03-11T20:28:14Z</time>
      </trkpt>
      <trkpt lat="43.23104" lon="6.30784">
        <ele>249.3</ele>
        <time>2021-03-11T20:28:14Z</time>
      </trkpt>
      <trkpt lat="43.23097" lon="6.30791">
        <ele>251</ele>
        <time>2021-03-11T20:28:14Z</time>
      </trkpt>
      <trkpt lat="43.23091" lon="6.30803">
        <ele>251.5</ele>
        <time>2021-03-11T20:28:14Z</time>
      </trkpt>
      <trkpt lat="43.23082" lon="6.30831">
        <ele>257.2</ele>
        <time>2021-03-11T20:28:14Z</time>
      </trkpt>
      <trkpt lat="43.23074" lon="6.30828">
        <ele>261.3</ele>
        <time>2021-03-11T20:28:14Z</time>
      </trkpt>
      <trkpt lat="43.23071" lon="6.30819">
        <ele>261.5</ele>
        <time>2021-03-11T20:28:14Z</time>
      </trkpt>
      <trkpt lat="43.23065" lon="6.3081">
        <ele>262.6</ele>
        <time>2021-03-11T20:28:14Z</time>
      </trkpt>
      <trkpt lat="43.23055" lon="6.30807">
        <ele>266.4</ele>
        <time>2021-03-11T20:28:14Z</time>
      </trkpt>
      <trkpt lat="43.23048" lon="6.30807">
        <ele>268.9</ele>
        <time>2021-03-11T20:28:14Z</time>
      </trkpt>
      <trkpt lat="43.23034" lon="6.30821">
        <ele>275.3</ele>
        <time>2021-03-11T20:28:14Z</time>
      </trkpt>
      <trkpt lat="43.23024" lon="6.30821">
        <ele>275.6</ele>
        <time>2021-03-11T20:28:14Z</time>
      </trkpt>
      <trkpt lat="43.23017" lon="6.30815">
        <ele>272.3</ele>
        <time>2021-03-11T20:28:14Z</time>
      </trkpt>
      <trkpt lat="43.23008" lon="6.30803">
        <ele>268.1</ele>
        <time>2021-03-11T20:28:14Z</time>
      </trkpt>
      <trkpt lat="43.23002" lon="6.3079">
        <ele>266.8</ele>
        <time>2021-03-11T20:28:14Z</time>
      </trkpt>
      <trkpt lat="43.22994" lon="6.30782">
        <ele>264.3</ele>
        <time>2021-03-11T20:28:14Z</time>
      </trkpt>
      <trkpt lat="43.22988" lon="6.30814">
        <ele>261.3</ele>
        <time>2021-03-11T20:28:14Z</time>
      </trkpt>
      <trkpt lat="43.2298" lon="6.30814">
        <ele>257.9</ele>
        <time>2021-03-11T20:28:14Z</time>
      </trkpt>
      <trkpt lat="43.22971" lon="6.30808">
        <ele>254.4</ele>
        <time>2021-03-11T20:28:14Z</time>
      </trkpt>
      <trkpt lat="43.2296" lon="6.30777">
        <ele>250.2</ele>
        <time>2021-03-11T20:28:14Z</time>
      </trkpt>
      <trkpt lat="43.22945" lon="6.30755">
        <ele>245.8</ele>
        <time>2021-03-11T20:28:14Z</time>
      </trkpt>
      <trkpt lat="43.22938" lon="6.30735">
        <ele>244.2</ele>
        <time>2021-03-11T20:28:14Z</time>
      </trkpt>
      <trkpt lat="43.22924" lon="6.30637">
        <ele>237.3</ele>
        <time>2021-03-11T20:28:14Z</time>
      </trkpt>
      <trkpt lat="43.22918" lon="6.30628">
        <ele>236.2</ele>
        <time>2021-03-11T20:28:14Z</time>
      </trkpt>
      <trkpt lat="43.22865" lon="6.30592">
        <ele>228.8</ele>
        <time>2021-03-11T20:28:14Z</time>
      </trkpt>
      <trkpt lat="43.22838" lon="6.30557">
        <ele>224</ele>
        <time>2021-03-11T20:28:14Z</time>
      </trkpt>
      <trkpt lat="43.22831" lon="6.30534">
        <ele>221.8</ele>
        <time>2021-03-11T20:28:14Z</time>
      </trkpt>
      <trkpt lat="43.2283" lon="6.30521">
        <ele>220.5</ele>
        <time>2021-03-11T20:28:14Z</time>
      </trkpt>
      <trkpt lat="43.22848" lon="6.30465">
        <ele>216.6</ele>
        <time>2021-03-11T20:28:14Z</time>
      </trkpt>
      <trkpt lat="43.22848" lon="6.30447">
        <ele>215.1</ele>
        <time>2021-03-11T20:28:14Z</time>
      </trkpt>
      <trkpt lat="43.22841" lon="6.30409">
        <ele>212.5</ele>
        <time>2021-03-11T20:28:14Z</time>
      </trkpt>
      <trkpt lat="43.22835" lon="6.30292">
        <ele>200.9</ele>
        <time>2021-03-11T20:28:14Z</time>
      </trkpt>
      <trkpt lat="43.22806" lon="6.30244">
        <ele>193.4</ele>
        <time>2021-03-11T20:28:14Z</time>
      </trkpt>
      <trkpt lat="43.22799" lon="6.30192">
        <ele>188</ele>
        <time>2021-03-11T20:28:14Z</time>
      </trkpt>
      <trkpt lat="43.22799" lon="6.3018">
        <ele>186.2</ele>
        <time>2021-03-11T20:28:14Z</time>
      </trkpt>
      <trkpt lat="43.22808" lon="6.30172">
        <ele>188</ele>
        <time>2021-03-11T20:28:14Z</time>
      </trkpt>
      <trkpt lat="43.22835" lon="6.30177">
        <ele>188.6</ele>
        <time>2021-03-11T20:28:14Z</time>
      </trkpt>
      <trkpt lat="43.22858" lon="6.30195">
        <ele>193.5</ele>
        <time>2021-03-11T20:28:14Z</time>
      </trkpt>
      <trkpt lat="43.22866" lon="6.30193">
        <ele>193.4</ele>
        <time>2021-03-11T20:28:14Z</time>
      </trkpt>
      <trkpt lat="43.22864" lon="6.30181">
        <ele>192.3</ele>
        <time>2021-03-11T20:28:14Z</time>
      </trkpt>
      <trkpt lat="43.22833" lon="6.3014">
        <ele>182.2</ele>
        <time>2021-03-11T20:28:14Z</time>
      </trkpt>
      <trkpt lat="43.22819" lon="6.30134">
        <ele>180.5</ele>
        <time>2021-03-11T20:28:14Z</time>
      </trkpt>
      <trkpt lat="43.22788" lon="6.30133">
        <ele>175.1</ele>
        <time>2021-03-11T20:28:14Z</time>
      </trkpt>
      <trkpt lat="43.22774" lon="6.30119">
        <ele>172</ele>
        <time>2021-03-11T20:28:14Z</time>
      </trkpt>
      <trkpt lat="43.22748" lon="6.30076">
        <ele>166.4</ele>
        <time>2021-03-11T20:28:14Z</time>
      </trkpt>
      <trkpt lat="43.22742" lon="6.30054">
        <ele>164.6</ele>
        <time>2021-03-11T20:28:14Z</time>
      </trkpt>
      <trkpt lat="43.2274" lon="6.30032">
        <ele>161.5</ele>
        <time>2021-03-11T20:28:14Z</time>
      </trkpt>
      <trkpt lat="43.22732" lon="6.30018">
        <ele>160.3</ele>
        <time>2021-03-11T20:28:14Z</time>
      </trkpt>
      <trkpt lat="43.22701" lon="6.2999">
        <ele>162.6</ele>
        <time>2021-03-11T20:28:14Z</time>
      </trkpt>
      <trkpt lat="43.22702" lon="6.30059">
        <ele>162.7</ele>
        <time>2021-03-11T20:28:14Z</time>
      </trkpt>
      <trkpt lat="43.22724" lon="6.30137">
        <ele>163.2</ele>
        <time>2021-03-11T20:28:14Z</time>
      </trkpt>
      <trkpt lat="43.22724" lon="6.30176">
        <ele>163.6</ele>
        <time>2021-03-11T20:28:14Z</time>
      </trkpt>
      <trkpt lat="43.22713" lon="6.30219">
        <ele>163.1</ele>
        <time>2021-03-11T20:28:14Z</time>
      </trkpt>
      <trkpt lat="43.22693" lon="6.30268">
        <ele>164.5</ele>
        <time>2021-03-11T20:28:14Z</time>
      </trkpt>
      <trkpt lat="43.22662" lon="6.30374">
        <ele>165.6</ele>
        <time>2021-03-11T20:28:14Z</time>
      </trkpt>
      <trkpt lat="43.22648" lon="6.30397">
        <ele>166.9</ele>
        <time>2021-03-11T20:28:14Z</time>
      </trkpt>
      <trkpt lat="43.22576" lon="6.30474">
        <ele>169.2</ele>
        <time>2021-03-11T20:28:14Z</time>
      </trkpt>
      <trkpt lat="43.22569" lon="6.30478">
        <ele>169.2</ele>
        <time>2021-03-11T20:28:14Z</time>
      </trkpt>
      <trkpt lat="43.22517" lon="6.30475">
        <ele>174.1</ele>
        <time>2021-03-11T20:28:14Z</time>
      </trkpt>
      <trkpt lat="43.22511" lon="6.30482">
        <ele>174.5</ele>
        <time>2021-03-11T20:28:14Z</time>
      </trkpt>
      <trkpt lat="43.22501" lon="6.30525">
        <ele>174</ele>
        <time>2021-03-11T20:28:14Z</time>
      </trkpt>
      <trkpt lat="43.22415" lon="6.31305">
        <ele>190.7</ele>
        <time>2021-03-11T20:28:14Z</time>
      </trkpt>
      <trkpt lat="43.22399" lon="6.31334">
        <ele>194</ele>
        <time>2021-03-11T20:28:14Z</time>
      </trkpt>
      <trkpt lat="43.22356" lon="6.31462">
        <ele>197.5</ele>
        <time>2021-03-11T20:28:14Z</time>
      </trkpt>
      <trkpt lat="43.22345" lon="6.3147">
        <ele>198.3</ele>
        <time>2021-03-11T20:28:14Z</time>
      </trkpt>
      <trkpt lat="43.22326" lon="6.31458">
        <ele>204.8</ele>
        <time>2021-03-11T20:28:14Z</time>
      </trkpt>
      <trkpt lat="43.22318" lon="6.31463">
        <ele>206.2</ele>
        <time>2021-03-11T20:28:14Z</time>
      </trkpt>
      <trkpt lat="43.22322" lon="6.31487">
        <ele>205.5</ele>
        <time>2021-03-11T20:28:14Z</time>
      </trkpt>
      <trkpt lat="43.22322" lon="6.31501">
        <ele>206.3</ele>
        <time>2021-03-11T20:28:14Z</time>
      </trkpt>
      <trkpt lat="43.22304" lon="6.31535">
        <ele>209</ele>
        <time>2021-03-11T20:28:14Z</time>
      </trkpt>
      <trkpt lat="43.22294" lon="6.31547">
        <ele>210</ele>
        <time>2021-03-11T20:28:14Z</time>
      </trkpt>
      <trkpt lat="43.22184" lon="6.31644">
        <ele>223.5</ele>
        <time>2021-03-11T20:28:14Z</time>
      </trkpt>
      <trkpt lat="43.2216" lon="6.3165">
        <ele>226.5</ele>
        <time>2021-03-11T20:28:14Z</time>
      </trkpt>
      <trkpt lat="43.22138" lon="6.31647">
        <ele>229.8</ele>
        <time>2021-03-11T20:28:14Z</time>
      </trkpt>
      <trkpt lat="43.22126" lon="6.31652">
        <ele>231.5</ele>
        <time>2021-03-11T20:28:14Z</time>
      </trkpt>
      <trkpt lat="43.22112" lon="6.31751">
        <ele>235.3</ele>
        <time>2021-03-11T20:28:14Z</time>
      </trkpt>
      <trkpt lat="43.2208" lon="6.31787">
        <ele>239.6</ele>
        <time>2021-03-11T20:28:14Z</time>
      </trkpt>
      <trkpt lat="43.22047" lon="6.31804">
        <ele>243</ele>
        <time>2021-03-11T20:28:14Z</time>
      </trkpt>
      <trkpt lat="43.22018" lon="6.31812">
        <ele>247.8</ele>
        <time>2021-03-11T20:28:14Z</time>
      </trkpt>
      <trkpt lat="43.22008" lon="6.31851">
        <ele>248.3</ele>
        <time>2021-03-11T20:28:14Z</time>
      </trkpt>
      <trkpt lat="43.22002" lon="6.31861">
        <ele>249.3</ele>
        <time>2021-03-11T20:28:14Z</time>
      </trkpt>
      <trkpt lat="43.21942" lon="6.31921">
        <ele>256.7</ele>
        <time>2021-03-11T20:28:14Z</time>
      </trkpt>
      <trkpt lat="43.21922" lon="6.31968">
        <ele>260.8</ele>
        <time>2021-03-11T20:28:14Z</time>
      </trkpt>
      <trkpt lat="43.21898" lon="6.3199">
        <ele>262.8</ele>
        <time>2021-03-11T20:28:14Z</time>
      </trkpt>
      <trkpt lat="43.21891" lon="6.31989">
        <ele>264.2</ele>
        <time>2021-03-11T20:28:14Z</time>
      </trkpt>
      <trkpt lat="43.21884" lon="6.3198">
        <ele>265.1</ele>
        <time>2021-03-11T20:28:14Z</time>
      </trkpt>
      <trkpt lat="43.21848" lon="6.31915">
        <ele>270.9</ele>
        <time>2021-03-11T20:28:14Z</time>
      </trkpt>
      <trkpt lat="43.21837" lon="6.31902">
        <ele>271.8</ele>
        <time>2021-03-11T20:28:14Z</time>
      </trkpt>
      <trkpt lat="43.21805" lon="6.31884">
        <ele>275.4</ele>
        <time>2021-03-11T20:28:14Z</time>
      </trkpt>
      <trkpt lat="43.21789" lon="6.31879">
        <ele>276.7</ele>
        <time>2021-03-11T20:28:14Z</time>
      </trkpt>
      <trkpt lat="43.21751" lon="6.31878">
        <ele>278.8</ele>
        <time>2021-03-11T20:28:14Z</time>
      </trkpt>
      <trkpt lat="43.21738" lon="6.31872">
        <ele>279.3</ele>
        <time>2021-03-11T20:28:14Z</time>
      </trkpt>
      <trkpt lat="43.21726" lon="6.31861">
        <ele>281.7</ele>
        <time>2021-03-11T20:28:14Z</time>
      </trkpt>
      <trkpt lat="43.21719" lon="6.31847">
        <ele>282.2</ele>
        <time>2021-03-11T20:28:14Z</time>
      </trkpt>
      <trkpt lat="43.21711" lon="6.31805">
        <ele>286.5</ele>
        <time>2021-03-11T20:28:14Z</time>
      </trkpt>
      <trkpt lat="43.21692" lon="6.31762">
        <ele>290.3</ele>
        <time>2021-03-11T20:28:14Z</time>
      </trkpt>
      <trkpt lat="43.2168" lon="6.31752">
        <ele>293.8</ele>
        <time>2021-03-11T20:28:14Z</time>
      </trkpt>
      <trkpt lat="43.21637" lon="6.31822">
        <ele>295.5</ele>
        <time>2021-03-11T20:28:14Z</time>
      </trkpt>
      <trkpt lat="43.21627" lon="6.31831">
        <ele>296.2</ele>
        <time>2021-03-11T20:28:14Z</time>
      </trkpt>
      <trkpt lat="43.21605" lon="6.31837">
        <ele>299.5</ele>
        <time>2021-03-11T20:28:14Z</time>
      </trkpt>
      <trkpt lat="43.21595" lon="6.31851">
        <ele>297.7</ele>
        <time>2021-03-11T20:28:14Z</time>
      </trkpt>
      <trkpt lat="43.21585" lon="6.31853">
        <ele>300</ele>
        <time>2021-03-11T20:28:14Z</time>
      </trkpt>
      <trkpt lat="43.2157" lon="6.31849">
        <ele>300.3</ele>
        <time>2021-03-11T20:28:14Z</time>
      </trkpt>
      <trkpt lat="43.21555" lon="6.31835">
        <ele>303.3</ele>
        <time>2021-03-11T20:28:14Z</time>
      </trkpt>
      <trkpt lat="43.21546" lon="6.31821">
        <ele>305.6</ele>
        <time>2021-03-11T20:28:14Z</time>
      </trkpt>
      <trkpt lat="43.21531" lon="6.31807">
        <ele>306.5</ele>
        <time>2021-03-11T20:28:14Z</time>
      </trkpt>
      <trkpt lat="43.21429" lon="6.31761">
        <ele>317.8</ele>
        <time>2021-03-11T20:28:14Z</time>
      </trkpt>
      <trkpt lat="43.21422" lon="6.31762">
        <ele>317.5</ele>
        <time>2021-03-11T20:28:14Z</time>
      </trkpt>
      <trkpt lat="43.2139" lon="6.31799">
        <ele>319.5</ele>
        <time>2021-03-11T20:28:14Z</time>
      </trkpt>
      <trkpt lat="43.21381" lon="6.31801">
        <ele>319.1</ele>
        <time>2021-03-11T20:28:14Z</time>
      </trkpt>
      <trkpt lat="43.21375" lon="6.31794">
        <ele>319.5</ele>
        <time>2021-03-11T20:28:14Z</time>
      </trkpt>
      <trkpt lat="43.21351" lon="6.31666">
        <ele>326</ele>
        <time>2021-03-11T20:28:14Z</time>
      </trkpt>
      <trkpt lat="43.21357" lon="6.31584">
        <ele>329.4</ele>
        <time>2021-03-11T20:28:14Z</time>
      </trkpt>
      <trkpt lat="43.21353" lon="6.31568">
        <ele>331.3</ele>
        <time>2021-03-11T20:28:14Z</time>
      </trkpt>
      <trkpt lat="43.21353" lon="6.31529">
        <ele>336.3</ele>
        <time>2021-03-11T20:28:14Z</time>
      </trkpt>
      <trkpt lat="43.21361" lon="6.31519">
        <ele>336.6</ele>
        <time>2021-03-11T20:28:14Z</time>
      </trkpt>
      <trkpt lat="43.21379" lon="6.31504">
        <ele>339.6</ele>
        <time>2021-03-11T20:28:14Z</time>
      </trkpt>
      <trkpt lat="43.21385" lon="6.31469">
        <ele>340.2</ele>
        <time>2021-03-11T20:28:14Z</time>
      </trkpt>
      <trkpt lat="43.21381" lon="6.31457">
        <ele>342.4</ele>
        <time>2021-03-11T20:28:14Z</time>
      </trkpt>
      <trkpt lat="43.21375" lon="6.31449">
        <ele>343.6</ele>
        <time>2021-03-11T20:28:14Z</time>
      </trkpt>
      <trkpt lat="43.21383" lon="6.31441">
        <ele>344.7</ele>
        <time>2021-03-11T20:28:14Z</time>
      </trkpt>
      <trkpt lat="43.21398" lon="6.31431">
        <ele>345.8</ele>
        <time>2021-03-11T20:28:14Z</time>
      </trkpt>
      <trkpt lat="43.214" lon="6.31416">
        <ele>347.6</ele>
        <time>2021-03-11T20:28:14Z</time>
      </trkpt>
      <trkpt lat="43.21384" lon="6.31381">
        <ele>354.9</ele>
        <time>2021-03-11T20:28:14Z</time>
      </trkpt>
      <trkpt lat="43.21394" lon="6.3137">
        <ele>354.5</ele>
        <time>2021-03-11T20:28:14Z</time>
      </trkpt>
      <trkpt lat="43.21399" lon="6.31358">
        <ele>355.9</ele>
        <time>2021-03-11T20:28:14Z</time>
      </trkpt>
      <trkpt lat="43.21397" lon="6.31347">
        <ele>358.5</ele>
        <time>2021-03-11T20:28:14Z</time>
      </trkpt>
      <trkpt lat="43.21391" lon="6.31335">
        <ele>361.5</ele>
        <time>2021-03-11T20:28:14Z</time>
      </trkpt>
      <trkpt lat="43.21386" lon="6.31318">
        <ele>365.7</ele>
        <time>2021-03-11T20:28:14Z</time>
      </trkpt>
      <trkpt lat="43.21387" lon="6.31304">
        <ele>368</ele>
        <time>2021-03-11T20:28:14Z</time>
      </trkpt>
      <trkpt lat="43.21398" lon="6.31283">
        <ele>371</ele>
        <time>2021-03-11T20:28:14Z</time>
      </trkpt>
      <trkpt lat="43.214" lon="6.3127">
        <ele>373.6</ele>
        <time>2021-03-11T20:28:14Z</time>
      </trkpt>
      <trkpt lat="43.21398" lon="6.31259">
        <ele>376.9</ele>
        <time>2021-03-11T20:28:14Z</time>
      </trkpt>
      <trkpt lat="43.2137" lon="6.3125">
        <ele>388.1</ele>
        <time>2021-03-11T20:28:14Z</time>
      </trkpt>
      <trkpt lat="43.21364" lon="6.31241">
        <ele>392.5</ele>
        <time>2021-03-11T20:28:14Z</time>
      </trkpt>
      <trkpt lat="43.21371" lon="6.31229">
        <ele>393.4</ele>
        <time>2021-03-11T20:28:14Z</time>
      </trkpt>
      <trkpt lat="43.21379" lon="6.31226">
        <ele>390.9</ele>
        <time>2021-03-11T20:28:14Z</time>
      </trkpt>
      <trkpt lat="43.21387" lon="6.31217">
        <ele>389.5</ele>
        <time>2021-03-11T20:28:14Z</time>
      </trkpt>
      <trkpt lat="43.21381" lon="6.31207">
        <ele>394.1</ele>
        <time>2021-03-11T20:28:14Z</time>
      </trkpt>
      <trkpt lat="43.21403" lon="6.31168">
        <ele>394.8</ele>
        <time>2021-03-11T20:28:14Z</time>
      </trkpt>
      <trkpt lat="43.21394" lon="6.31151">
        <ele>400.5</ele>
        <time>2021-03-11T20:28:14Z</time>
      </trkpt>
      <trkpt lat="43.21409" lon="6.31134">
        <ele>406.3</ele>
        <time>2021-03-11T20:28:14Z</time>
      </trkpt>
      <trkpt lat="43.21418" lon="6.31132">
        <ele>407</ele>
        <time>2021-03-11T20:28:14Z</time>
      </trkpt>
      <trkpt lat="43.2143" lon="6.31133">
        <ele>410.3</ele>
        <time>2021-03-11T20:28:14Z</time>
      </trkpt>
      <trkpt lat="43.21418" lon="6.31118">
        <ele>410.5</ele>
        <time>2021-03-11T20:28:14Z</time>
      </trkpt>
      <trkpt lat="43.21406" lon="6.31113">
        <ele>412.3</ele>
        <time>2021-03-11T20:28:14Z</time>
      </trkpt>
      <trkpt lat="43.21389" lon="6.31112">
        <ele>413.7</ele>
        <time>2021-03-11T20:28:14Z</time>
      </trkpt>
      <trkpt lat="43.21362" lon="6.31125">
        <ele>415.8</ele>
        <time>2021-03-11T20:28:14Z</time>
      </trkpt>
      <trkpt lat="43.21355" lon="6.31137">
        <ele>416</ele>
        <time>2021-03-11T20:28:14Z</time>
      </trkpt>
      <trkpt lat="43.21348" lon="6.31158">
        <ele>416.5</ele>
        <time>2021-03-11T20:28:14Z</time>
      </trkpt>
      <trkpt lat="43.21336" lon="6.31177">
        <ele>417.8</ele>
        <time>2021-03-11T20:28:14Z</time>
      </trkpt>
      <trkpt lat="43.21325" lon="6.31188">
        <ele>418.9</ele>
        <time>2021-03-11T20:28:14Z</time>
      </trkpt>
      <trkpt lat="43.21296" lon="6.312">
        <ele>420.6</ele>
        <time>2021-03-11T20:28:14Z</time>
      </trkpt>
      <trkpt lat="43.21218" lon="6.31212">
        <ele>429.2</ele>
        <time>2021-03-11T20:28:14Z</time>
      </trkpt>
      <trkpt lat="43.21168" lon="6.31244">
        <ele>432.6</ele>
        <time>2021-03-11T20:28:14Z</time>
      </trkpt>
      <trkpt lat="43.2114" lon="6.31282">
        <ele>434.3</ele>
        <time>2021-03-11T20:28:14Z</time>
      </trkpt>
      <trkpt lat="43.21122" lon="6.31318">
        <ele>434.3</ele>
        <time>2021-03-11T20:28:14Z</time>
      </trkpt>
      <trkpt lat="43.21114" lon="6.31319">
        <ele>435.1</ele>
        <time>2021-03-11T20:28:14Z</time>
      </trkpt>
      <trkpt lat="43.21046" lon="6.31245">
        <ele>442.1</ele>
        <time>2021-03-11T20:28:14Z</time>
      </trkpt>
      <trkpt lat="43.20958" lon="6.31183">
        <ele>448.9</ele>
        <time>2021-03-11T20:28:14Z</time>
      </trkpt>
      <trkpt lat="43.20948" lon="6.31173">
        <ele>449.4</ele>
        <time>2021-03-11T20:28:14Z</time>
      </trkpt>
      <trkpt lat="43.20891" lon="6.31084">
        <ele>457.1</ele>
        <time>2021-03-11T20:28:14Z</time>
      </trkpt>
      <trkpt lat="43.20881" lon="6.3109">
        <ele>456.6</ele>
        <time>2021-03-11T20:28:14Z</time>
      </trkpt>
      <trkpt lat="43.20838" lon="6.31136">
        <ele>458.2</ele>
        <time>2021-03-11T20:28:14Z</time>
      </trkpt>
      <trkpt lat="43.20824" lon="6.31145">
        <ele>458.2</ele>
        <time>2021-03-11T20:28:14Z</time>
      </trkpt>
      <trkpt lat="43.20647" lon="6.31192">
        <ele>463</ele>
        <time>2021-03-11T20:28:14Z</time>
      </trkpt>
      <trkpt lat="43.20555" lon="6.3109">
        <ele>466.4</ele>
        <time>2021-03-11T20:28:14Z</time>
      </trkpt>
      <trkpt lat="43.20508" lon="6.31076">
        <ele>465.4</ele>
        <time>2021-03-11T20:28:14Z</time>
      </trkpt>
      <trkpt lat="43.20468" lon="6.31086">
        <ele>466.6</ele>
        <time>2021-03-11T20:28:14Z</time>
      </trkpt>
      <trkpt lat="43.20453" lon="6.31097">
        <ele>466.5</ele>
        <time>2021-03-11T20:28:14Z</time>
      </trkpt>
      <trkpt lat="43.20437" lon="6.31118">
        <ele>466</ele>
        <time>2021-03-11T20:28:14Z</time>
      </trkpt>
      <trkpt lat="43.20324" lon="6.31317">
        <ele>467.1</ele>
        <time>2021-03-11T20:28:14Z</time>
      </trkpt>
      <trkpt lat="43.20311" lon="6.31325">
        <ele>467.5</ele>
        <time>2021-03-11T20:28:14Z</time>
      </trkpt>
      <trkpt lat="43.20273" lon="6.31334">
        <ele>470.4</ele>
        <time>2021-03-11T20:28:14Z</time>
      </trkpt>
      <trkpt lat="43.20266" lon="6.31332">
        <ele>470.9</ele>
        <time>2021-03-11T20:28:14Z</time>
      </trkpt>
      <trkpt lat="43.20266" lon="6.31342">
        <ele>471.2</ele>
        <time>2021-03-11T20:28:14Z</time>
      </trkpt>
      <trkpt lat="43.2026" lon="6.31358">
        <ele>473.6</ele>
        <time>2021-03-11T20:28:14Z</time>
      </trkpt>
      <trkpt lat="43.20245" lon="6.31467">
        <ele>479.9</ele>
        <time>2021-03-11T20:28:14Z</time>
      </trkpt>
      <trkpt lat="43.20251" lon="6.31637">
        <ele>484.5</ele>
        <time>2021-03-11T20:28:14Z</time>
      </trkpt>
      <trkpt lat="43.20224" lon="6.31842">
        <ele>497.3</ele>
        <time>2021-03-11T20:28:14Z</time>
      </trkpt>
      <trkpt lat="43.20228" lon="6.31911">
        <ele>501.4</ele>
        <time>2021-03-11T20:28:14Z</time>
      </trkpt>
      <trkpt lat="43.20224" lon="6.31954">
        <ele>504.2</ele>
        <time>2021-03-11T20:28:14Z</time>
      </trkpt>
      <trkpt lat="43.2022" lon="6.31967">
        <ele>505.2</ele>
        <time>2021-03-11T20:28:14Z</time>
      </trkpt>
      <trkpt lat="43.20222" lon="6.31978">
        <ele>506</ele>
        <time>2021-03-11T20:28:14Z</time>
      </trkpt>
      <trkpt lat="43.20228" lon="6.31988">
        <ele>508.6</ele>
        <time>2021-03-11T20:28:14Z</time>
      </trkpt>
      <trkpt lat="43.20303" lon="6.31986">
        <ele>508.5</ele>
        <time>2021-03-11T20:28:14Z</time>
      </trkpt>
      <trkpt lat="43.20316" lon="6.31996">
        <ele>508.8</ele>
        <time>2021-03-11T20:28:14Z</time>
      </trkpt>
      <trkpt lat="43.20324" lon="6.32009">
        <ele>509.2</ele>
        <time>2021-03-11T20:28:14Z</time>
      </trkpt>
      <trkpt lat="43.20328" lon="6.32027">
        <ele>510.9</ele>
        <time>2021-03-11T20:28:14Z</time>
      </trkpt>
      <trkpt lat="43.20329" lon="6.32043">
        <ele>511.4</ele>
        <time>2021-03-11T20:28:14Z</time>
      </trkpt>
      <trkpt lat="43.20302" lon="6.32134">
        <ele>517.5</ele>
        <time>2021-03-11T20:28:14Z</time>
      </trkpt>
      <trkpt lat="43.20302" lon="6.32145">
        <ele>518.5</ele>
        <time>2021-03-11T20:28:14Z</time>
      </trkpt>
      <trkpt lat="43.20312" lon="6.32163">
        <ele>519</ele>
        <time>2021-03-11T20:28:14Z</time>
      </trkpt>
      <trkpt lat="43.20401" lon="6.32258">
        <ele>524.2</ele>
        <time>2021-03-11T20:28:14Z</time>
      </trkpt>
      <trkpt lat="43.20407" lon="6.32273">
        <ele>525.1</ele>
        <time>2021-03-11T20:28:14Z</time>
      </trkpt>
      <trkpt lat="43.20415" lon="6.3233">
        <ele>529</ele>
        <time>2021-03-11T20:28:14Z</time>
      </trkpt>
      <trkpt lat="43.20415" lon="6.32348">
        <ele>529.8</ele>
        <time>2021-03-11T20:28:14Z</time>
      </trkpt>
      <trkpt lat="43.20412" lon="6.32363">
        <ele>530.6</ele>
        <time>2021-03-11T20:28:14Z</time>
      </trkpt>
      <trkpt lat="43.20408" lon="6.32371">
        <ele>530.3</ele>
        <time>2021-03-11T20:28:14Z</time>
      </trkpt>
      <trkpt lat="43.20399" lon="6.32374">
        <ele>530.5</ele>
        <time>2021-03-11T20:28:14Z</time>
      </trkpt>
      <trkpt lat="43.20389" lon="6.3237">
        <ele>532</ele>
        <time>2021-03-11T20:28:14Z</time>
      </trkpt>
      <trkpt lat="43.20345" lon="6.32326">
        <ele>536.7</ele>
        <time>2021-03-11T20:28:14Z</time>
      </trkpt>
      <trkpt lat="43.20334" lon="6.3232">
        <ele>537.8</ele>
        <time>2021-03-11T20:28:14Z</time>
      </trkpt>
      <trkpt lat="43.20249" lon="6.32314">
        <ele>547.5</ele>
        <time>2021-03-11T20:28:14Z</time>
      </trkpt>
      <trkpt lat="43.20242" lon="6.32308">
        <ele>549</ele>
        <time>2021-03-11T20:28:14Z</time>
      </trkpt>
      <trkpt lat="43.2023" lon="6.32276">
        <ele>554.2</ele>
        <time>2021-03-11T20:28:14Z</time>
      </trkpt>
      <trkpt lat="43.20225" lon="6.32264">
        <ele>555.1</ele>
        <time>2021-03-11T20:28:14Z</time>
      </trkpt>
      <trkpt lat="43.20226" lon="6.3225">
        <ele>555.4</ele>
        <time>2021-03-11T20:28:14Z</time>
      </trkpt>
      <trkpt lat="43.20224" lon="6.32235">
        <ele>555.6</ele>
        <time>2021-03-11T20:28:14Z</time>
      </trkpt>
      <trkpt lat="43.20212" lon="6.32217">
        <ele>557.2</ele>
        <time>2021-03-11T20:28:14Z</time>
      </trkpt>
      <trkpt lat="43.20203" lon="6.32197">
        <ele>558.2</ele>
        <time>2021-03-11T20:28:14Z</time>
      </trkpt>
      <trkpt lat="43.20196" lon="6.32194">
        <ele>559.7</ele>
        <time>2021-03-11T20:28:14Z</time>
      </trkpt>
      <trkpt lat="43.20187" lon="6.32187">
        <ele>561.1</ele>
        <time>2021-03-11T20:28:14Z</time>
      </trkpt>
      <trkpt lat="43.20179" lon="6.32186">
        <ele>562.5</ele>
        <time>2021-03-11T20:28:14Z</time>
      </trkpt>
      <trkpt lat="43.20167" lon="6.322">
        <ele>565</ele>
        <time>2021-03-11T20:28:14Z</time>
      </trkpt>
      <trkpt lat="43.20163" lon="6.32209">
        <ele>565.7</ele>
        <time>2021-03-11T20:28:14Z</time>
      </trkpt>
      <trkpt lat="43.20135" lon="6.3232">
        <ele>570</ele>
        <time>2021-03-11T20:28:14Z</time>
      </trkpt>
      <trkpt lat="43.20145" lon="6.32401">
        <ele>573.7</ele>
        <time>2021-03-11T20:28:14Z</time>
      </trkpt>
      <trkpt lat="43.2015" lon="6.32409">
        <ele>573.6</ele>
        <time>2021-03-11T20:28:14Z</time>
      </trkpt>
      <trkpt lat="43.20201" lon="6.32452">
        <ele>575.3</ele>
        <time>2021-03-11T20:28:14Z</time>
      </trkpt>
      <trkpt lat="43.2023" lon="6.32502">
        <ele>577.1</ele>
        <time>2021-03-11T20:28:14Z</time>
      </trkpt>
      <trkpt lat="43.20235" lon="6.32522">
        <ele>578.7</ele>
        <time>2021-03-11T20:28:14Z</time>
      </trkpt>
      <trkpt lat="43.20236" lon="6.32539">
        <ele>579.5</ele>
        <time>2021-03-11T20:28:14Z</time>
      </trkpt>
      <trkpt lat="43.20234" lon="6.32551">
        <ele>580.1</ele>
        <time>2021-03-11T20:28:14Z</time>
      </trkpt>
      <trkpt lat="43.20228" lon="6.3257">
        <ele>580.7</ele>
        <time>2021-03-11T20:28:14Z</time>
      </trkpt>
      <trkpt lat="43.20207" lon="6.3259">
        <ele>581.8</ele>
        <time>2021-03-11T20:28:14Z</time>
      </trkpt>
      <trkpt lat="43.2018" lon="6.32595">
        <ele>582</ele>
        <time>2021-03-11T20:28:14Z</time>
      </trkpt>
      <trkpt lat="43.20146" lon="6.32591">
        <ele>581.9</ele>
        <time>2021-03-11T20:28:14Z</time>
      </trkpt>
      <trkpt lat="43.20129" lon="6.32594">
        <ele>581.9</ele>
        <time>2021-03-11T20:28:14Z</time>
      </trkpt>
      <trkpt lat="43.20004" lon="6.32654">
        <ele>584</ele>
        <time>2021-03-11T20:28:14Z</time>
      </trkpt>
      <trkpt lat="43.19937" lon="6.32669">
        <ele>586.5</ele>
        <time>2021-03-11T20:28:14Z</time>
      </trkpt>
      <trkpt lat="43.19905" lon="6.32696">
        <ele>586.8</ele>
        <time>2021-03-11T20:28:14Z</time>
      </trkpt>
      <trkpt lat="43.19891" lon="6.32718">
        <ele>587.1</ele>
        <time>2021-03-11T20:28:14Z</time>
      </trkpt>
      <trkpt lat="43.19871" lon="6.32802">
        <ele>586.8</ele>
        <time>2021-03-11T20:28:14Z</time>
      </trkpt>
      <trkpt lat="43.1987" lon="6.32816">
        <ele>586.3</ele>
        <time>2021-03-11T20:28:14Z</time>
      </trkpt>
      <trkpt lat="43.19863" lon="6.32823">
        <ele>585.8</ele>
        <time>2021-03-11T20:28:14Z</time>
      </trkpt>
      <trkpt lat="43.19872" lon="6.32818">
        <ele>586.2</ele>
        <time>2021-03-11T20:28:14Z</time>
      </trkpt>
      <trkpt lat="43.19902" lon="6.32833">
        <ele>587</ele>
        <time>2021-03-11T20:28:14Z</time>
      </trkpt>
      <trkpt lat="43.19936" lon="6.32869">
        <ele>590.7</ele>
        <time>2021-03-11T20:28:14Z</time>
      </trkpt>
      <trkpt lat="43.19959" lon="6.32876">
        <ele>591.8</ele>
        <time>2021-03-11T20:28:14Z</time>
      </trkpt>
      <trkpt lat="43.19969" lon="6.32883">
        <ele>591.9</ele>
        <time>2021-03-11T20:28:14Z</time>
      </trkpt>
      <trkpt lat="43.19982" lon="6.3291">
        <ele>594</ele>
        <time>2021-03-11T20:28:14Z</time>
      </trkpt>
      <trkpt lat="43.1999" lon="6.32932">
        <ele>595.2</ele>
        <time>2021-03-11T20:28:14Z</time>
      </trkpt>
      <trkpt lat="43.19993" lon="6.32975">
        <ele>595.8</ele>
        <time>2021-03-11T20:28:14Z</time>
      </trkpt>
      <trkpt lat="43.19991" lon="6.32997">
        <ele>596</ele>
        <time>2021-03-11T20:28:14Z</time>
      </trkpt>
      <trkpt lat="43.19982" lon="6.33027">
        <ele>596.3</ele>
        <time>2021-03-11T20:28:14Z</time>
      </trkpt>
      <trkpt lat="43.19981" lon="6.33116">
        <ele>594.7</ele>
        <time>2021-03-11T20:28:14Z</time>
      </trkpt>
      <trkpt lat="43.19983" lon="6.3313">
        <ele>595</ele>
        <time>2021-03-11T20:28:14Z</time>
      </trkpt>
      <trkpt lat="43.19995" lon="6.33152">
        <ele>595.1</ele>
        <time>2021-03-11T20:28:14Z</time>
      </trkpt>
      <trkpt lat="43.20175" lon="6.33271">
        <ele>594</ele>
        <time>2021-03-11T20:28:14Z</time>
      </trkpt>
      <trkpt lat="43.2018" lon="6.33279">
        <ele>593.5</ele>
        <time>2021-03-11T20:28:14Z</time>
      </trkpt>
      <trkpt lat="43.20183" lon="6.33289">
        <ele>593</ele>
        <time>2021-03-11T20:28:14Z</time>
      </trkpt>
      <trkpt lat="43.20182" lon="6.33321">
        <ele>591.6</ele>
        <time>2021-03-11T20:28:14Z</time>
      </trkpt>
      <trkpt lat="43.20179" lon="6.33339">
        <ele>591.2</ele>
        <time>2021-03-11T20:28:14Z</time>
      </trkpt>
      <trkpt lat="43.2017" lon="6.33362">
        <ele>588.8</ele>
        <time>2021-03-11T20:28:14Z</time>
      </trkpt>
      <trkpt lat="43.20169" lon="6.33373">
        <ele>588.4</ele>
        <time>2021-03-11T20:28:14Z</time>
      </trkpt>
      <trkpt lat="43.20173" lon="6.33384">
        <ele>587.9</ele>
        <time>2021-03-11T20:28:14Z</time>
      </trkpt>
      <trkpt lat="43.20213" lon="6.3339">
        <ele>585.1</ele>
        <time>2021-03-11T20:28:14Z</time>
      </trkpt>
      <trkpt lat="43.20222" lon="6.33397">
        <ele>584.3</ele>
        <time>2021-03-11T20:28:14Z</time>
      </trkpt>
      <trkpt lat="43.20271" lon="6.33467">
        <ele>579.6</ele>
        <time>2021-03-11T20:28:14Z</time>
      </trkpt>
      <trkpt lat="43.20317" lon="6.33493">
        <ele>577.5</ele>
        <time>2021-03-11T20:28:14Z</time>
      </trkpt>
      <trkpt lat="43.20351" lon="6.33496">
        <ele>576.9</ele>
        <time>2021-03-11T20:28:14Z</time>
      </trkpt>
      <trkpt lat="43.20411" lon="6.33483">
        <ele>574.9</ele>
        <time>2021-03-11T20:28:14Z</time>
      </trkpt>
      <trkpt lat="43.20437" lon="6.33488">
        <ele>572</ele>
        <time>2021-03-11T20:28:14Z</time>
      </trkpt>
      <trkpt lat="43.20464" lon="6.33516">
        <ele>573.3</ele>
        <time>2021-03-11T20:28:14Z</time>
      </trkpt>
      <trkpt lat="43.2049" lon="6.33515">
        <ele>572</ele>
        <time>2021-03-11T20:28:14Z</time>
      </trkpt>
      <trkpt lat="43.20526" lon="6.33509">
        <ele>571.3</ele>
        <time>2021-03-11T20:28:14Z</time>
      </trkpt>
      <trkpt lat="43.2052" lon="6.3353">
        <ele>572.4</ele>
        <time>2021-03-11T20:28:14Z</time>
      </trkpt>
      <trkpt lat="43.20513" lon="6.33543">
        <ele>572.3</ele>
        <time>2021-03-11T20:28:14Z</time>
      </trkpt>
      <trkpt lat="43.20494" lon="6.3361">
        <ele>574.6</ele>
        <time>2021-03-11T20:28:14Z</time>
      </trkpt>
      <trkpt lat="43.20479" lon="6.33639">
        <ele>577.4</ele>
        <time>2021-03-11T20:28:14Z</time>
      </trkpt>
      <trkpt lat="43.20483" lon="6.33658">
        <ele>580.3</ele>
        <time>2021-03-11T20:28:14Z</time>
      </trkpt>
      <trkpt lat="43.20543" lon="6.33705">
        <ele>582.2</ele>
        <time>2021-03-11T20:28:14Z</time>
      </trkpt>
      <trkpt lat="43.20551" lon="6.33718">
        <ele>583.5</ele>
        <time>2021-03-11T20:28:14Z</time>
      </trkpt>
      <trkpt lat="43.20558" lon="6.33737">
        <ele>584.2</ele>
        <time>2021-03-11T20:28:14Z</time>
      </trkpt>
      <trkpt lat="43.20559" lon="6.33751">
        <ele>584.6</ele>
        <time>2021-03-11T20:28:14Z</time>
      </trkpt>
      <trkpt lat="43.20556" lon="6.33762">
        <ele>585.3</ele>
        <time>2021-03-11T20:28:14Z</time>
      </trkpt>
      <trkpt lat="43.20552" lon="6.33772">
        <ele>586.1</ele>
        <time>2021-03-11T20:28:14Z</time>
      </trkpt>
      <trkpt lat="43.20518" lon="6.338">
        <ele>588.6</ele>
        <time>2021-03-11T20:28:14Z</time>
      </trkpt>
      <trkpt lat="43.20489" lon="6.33844">
        <ele>586.7</ele>
        <time>2021-03-11T20:28:14Z</time>
      </trkpt>
      <trkpt lat="43.20479" lon="6.33866">
        <ele>585.1</ele>
        <time>2021-03-11T20:28:14Z</time>
      </trkpt>
      <trkpt lat="43.20475" lon="6.33881">
        <ele>585.1</ele>
        <time>2021-03-11T20:28:14Z</time>
      </trkpt>
      <trkpt lat="43.20468" lon="6.3397">
        <ele>581.8</ele>
        <time>2021-03-11T20:28:14Z</time>
      </trkpt>
      <trkpt lat="43.20469" lon="6.33984">
        <ele>581.4</ele>
        <time>2021-03-11T20:28:14Z</time>
      </trkpt>
      <trkpt lat="43.20493" lon="6.34043">
        <ele>581.3</ele>
        <time>2021-03-11T20:28:14Z</time>
      </trkpt>
      <trkpt lat="43.20495" lon="6.34075">
        <ele>582.2</ele>
        <time>2021-03-11T20:28:14Z</time>
      </trkpt>
      <trkpt lat="43.20492" lon="6.34093">
        <ele>582.8</ele>
        <time>2021-03-11T20:28:14Z</time>
      </trkpt>
      <trkpt lat="43.20481" lon="6.34126">
        <ele>583</ele>
        <time>2021-03-11T20:28:14Z</time>
      </trkpt>
      <trkpt lat="43.20475" lon="6.34189">
        <ele>583.7</ele>
        <time>2021-03-11T20:28:14Z</time>
      </trkpt>
      <trkpt lat="43.20461" lon="6.34226">
        <ele>584.3</ele>
        <time>2021-03-11T20:28:14Z</time>
      </trkpt>
      <trkpt lat="43.20441" lon="6.34259">
        <ele>585</ele>
        <time>2021-03-11T20:28:14Z</time>
      </trkpt>
      <trkpt lat="43.20437" lon="6.34272">
        <ele>585.2</ele>
        <time>2021-03-11T20:28:14Z</time>
      </trkpt>
      <trkpt lat="43.20435" lon="6.34285">
        <ele>585.8</ele>
        <time>2021-03-11T20:28:14Z</time>
      </trkpt>
      <trkpt lat="43.20439" lon="6.34305">
        <ele>587</ele>
        <time>2021-03-11T20:28:14Z</time>
      </trkpt>
      <trkpt lat="43.20472" lon="6.34378">
        <ele>590.3</ele>
        <time>2021-03-11T20:28:14Z</time>
      </trkpt>
      <trkpt lat="43.20473" lon="6.34391">
        <ele>591</ele>
        <time>2021-03-11T20:28:14Z</time>
      </trkpt>
      <trkpt lat="43.2047" lon="6.34406">
        <ele>591.9</ele>
        <time>2021-03-11T20:28:14Z</time>
      </trkpt>
      <trkpt lat="43.20445" lon="6.34471">
        <ele>595</ele>
        <time>2021-03-11T20:28:14Z</time>
      </trkpt>
      <trkpt lat="43.20439" lon="6.3451">
        <ele>596.2</ele>
        <time>2021-03-11T20:28:14Z</time>
      </trkpt>
      <trkpt lat="43.20441" lon="6.34531">
        <ele>597.4</ele>
        <time>2021-03-11T20:28:14Z</time>
      </trkpt>
      <trkpt lat="43.20463" lon="6.346">
        <ele>600.1</ele>
        <time>2021-03-11T20:28:14Z</time>
      </trkpt>
      <trkpt lat="43.2047" lon="6.34614">
        <ele>600.3</ele>
        <time>2021-03-11T20:28:14Z</time>
      </trkpt>
      <trkpt lat="43.2048" lon="6.34626">
        <ele>600.2</ele>
        <time>2021-03-11T20:28:14Z</time>
      </trkpt>
      <trkpt lat="43.20503" lon="6.34636">
        <ele>600</ele>
        <time>2021-03-11T20:28:14Z</time>
      </trkpt>
      <trkpt lat="43.20529" lon="6.34633">
        <ele>600.6</ele>
        <time>2021-03-11T20:28:14Z</time>
      </trkpt>
      <trkpt lat="43.20538" lon="6.34635">
        <ele>600.8</ele>
        <time>2021-03-11T20:28:14Z</time>
      </trkpt>
      <trkpt lat="43.20548" lon="6.34644">
        <ele>601.4</ele>
        <time>2021-03-11T20:28:14Z</time>
      </trkpt>
      <trkpt lat="43.20556" lon="6.34657">
        <ele>602.3</ele>
        <time>2021-03-11T20:28:14Z</time>
      </trkpt>
      <trkpt lat="43.20569" lon="6.347">
        <ele>604.3</ele>
        <time>2021-03-11T20:28:14Z</time>
      </trkpt>
      <trkpt lat="43.20571" lon="6.34713">
        <ele>604.9</ele>
        <time>2021-03-11T20:28:14Z</time>
      </trkpt>
      <trkpt lat="43.20566" lon="6.34739">
        <ele>605.2</ele>
        <time>2021-03-11T20:28:14Z</time>
      </trkpt>
      <trkpt lat="43.20566" lon="6.3475">
        <ele>605</ele>
        <time>2021-03-11T20:28:14Z</time>
      </trkpt>
      <trkpt lat="43.20574" lon="6.34767">
        <ele>604</ele>
        <time>2021-03-11T20:28:14Z</time>
      </trkpt>
      <trkpt lat="43.20673" lon="6.34865">
        <ele>593</ele>
        <time>2021-03-11T20:28:14Z</time>
      </trkpt>
      <trkpt lat="43.20719" lon="6.34953">
        <ele>599.8</ele>
        <time>2021-03-11T20:28:14Z</time>
      </trkpt>
      <trkpt lat="43.20738" lon="6.3497">
        <ele>600</ele>
        <time>2021-03-11T20:28:14Z</time>
      </trkpt>
      <trkpt lat="43.20773" lon="6.35041">
        <ele>598.9</ele>
        <time>2021-03-11T20:28:14Z</time>
      </trkpt>
      <trkpt lat="43.2078" lon="6.35049">
        <ele>598.7</ele>
        <time>2021-03-11T20:28:14Z</time>
      </trkpt>
      <trkpt lat="43.2079" lon="6.35051">
        <ele>598.3</ele>
        <time>2021-03-11T20:28:14Z</time>
      </trkpt>
      <trkpt lat="43.2082" lon="6.35041">
        <ele>596.5</ele>
        <time>2021-03-11T20:28:14Z</time>
      </trkpt>
      <trkpt lat="43.20827" lon="6.35044">
        <ele>596.4</ele>
        <time>2021-03-11T20:28:14Z</time>
      </trkpt>
      <trkpt lat="43.20845" lon="6.35069">
        <ele>596</ele>
        <time>2021-03-11T20:28:14Z</time>
      </trkpt>
      <trkpt lat="43.20863" lon="6.35132">
        <ele>594.7</ele>
        <time>2021-03-11T20:28:14Z</time>
      </trkpt>
      <trkpt lat="43.2087" lon="6.35143">
        <ele>595.1</ele>
        <time>2021-03-11T20:28:14Z</time>
      </trkpt>
      <trkpt lat="43.20882" lon="6.35155">
        <ele>595.1</ele>
        <time>2021-03-11T20:28:14Z</time>
      </trkpt>
      <trkpt lat="43.20891" lon="6.3516">
        <ele>595.1</ele>
        <time>2021-03-11T20:28:14Z</time>
      </trkpt>
      <trkpt lat="43.20917" lon="6.35164">
        <ele>596.2</ele>
        <time>2021-03-11T20:28:14Z</time>
      </trkpt>
      <trkpt lat="43.20951" lon="6.3516">
        <ele>597.9</ele>
        <time>2021-03-11T20:28:14Z</time>
      </trkpt>
      <trkpt lat="43.20966" lon="6.35165">
        <ele>599.4</ele>
        <time>2021-03-11T20:28:14Z</time>
      </trkpt>
      <trkpt lat="43.21022" lon="6.35211">
        <ele>603.8</ele>
        <time>2021-03-11T20:28:14Z</time>
      </trkpt>
      <trkpt lat="43.21099" lon="6.35326">
        <ele>612.2</ele>
        <time>2021-03-11T20:28:14Z</time>
      </trkpt>
      <trkpt lat="43.21156" lon="6.35361">
        <ele>615.3</ele>
        <time>2021-03-11T20:28:14Z</time>
      </trkpt>
      <trkpt lat="43.21229" lon="6.35365">
        <ele>615.4</ele>
        <time>2021-03-11T20:28:14Z</time>
      </trkpt>
      <trkpt lat="43.2125" lon="6.35384">
        <ele>614</ele>
        <time>2021-03-11T20:28:14Z</time>
      </trkpt>
      <trkpt lat="43.21259" lon="6.35396">
        <ele>613.9</ele>
        <time>2021-03-11T20:28:14Z</time>
      </trkpt>
      <trkpt lat="43.21262" lon="6.35409">
        <ele>613.9</ele>
        <time>2021-03-11T20:28:14Z</time>
      </trkpt>
      <trkpt lat="43.21265" lon="6.3546">
        <ele>613</ele>
        <time>2021-03-11T20:28:14Z</time>
      </trkpt>
      <trkpt lat="43.21296" lon="6.3556">
        <ele>611.7</ele>
        <time>2021-03-11T20:28:14Z</time>
      </trkpt>
      <trkpt lat="43.21319" lon="6.35607">
        <ele>612.4</ele>
        <time>2021-03-11T20:28:14Z</time>
      </trkpt>
      <trkpt lat="43.21338" lon="6.35667">
        <ele>612.3</ele>
        <time>2021-03-11T20:28:14Z</time>
      </trkpt>
      <trkpt lat="43.21378" lon="6.35736">
        <ele>614.1</ele>
        <time>2021-03-11T20:28:14Z</time>
      </trkpt>
      <trkpt lat="43.21403" lon="6.35798">
        <ele>615.2</ele>
        <time>2021-03-11T20:28:14Z</time>
      </trkpt>
      <trkpt lat="43.21434" lon="6.3585">
        <ele>616.5</ele>
        <time>2021-03-11T20:28:14Z</time>
      </trkpt>
      <trkpt lat="43.21472" lon="6.35926">
        <ele>616.7</ele>
        <time>2021-03-11T20:28:14Z</time>
      </trkpt>
      <trkpt lat="43.21651" lon="6.36175">
        <ele>614.4</ele>
        <time>2021-03-11T20:28:14Z</time>
      </trkpt>
      <trkpt lat="43.21681" lon="6.36201">
        <ele>614.7</ele>
        <time>2021-03-11T20:28:14Z</time>
      </trkpt>
      <trkpt lat="43.21709" lon="6.36199">
        <ele>614.1</ele>
        <time>2021-03-11T20:28:14Z</time>
      </trkpt>
      <trkpt lat="43.21717" lon="6.36203">
        <ele>614.1</ele>
        <time>2021-03-11T20:28:14Z</time>
      </trkpt>
      <trkpt lat="43.21723" lon="6.36211">
        <ele>614</ele>
        <time>2021-03-11T20:28:14Z</time>
      </trkpt>
      <trkpt lat="43.21732" lon="6.36228">
        <ele>613.9</ele>
        <time>2021-03-11T20:28:14Z</time>
      </trkpt>
      <trkpt lat="43.21737" lon="6.36254">
        <ele>613.3</ele>
        <time>2021-03-11T20:28:14Z</time>
      </trkpt>
      <trkpt lat="43.21726" lon="6.36391">
        <ele>606.6</ele>
        <time>2021-03-11T20:28:14Z</time>
      </trkpt>
      <trkpt lat="43.21736" lon="6.36407">
        <ele>605.4</ele>
        <time>2021-03-11T20:28:14Z</time>
      </trkpt>
      <trkpt lat="43.21785" lon="6.36426">
        <ele>603</ele>
        <time>2021-03-11T20:28:14Z</time>
      </trkpt>
      <trkpt lat="43.21792" lon="6.36435">
        <ele>602.8</ele>
        <time>2021-03-11T20:28:14Z</time>
      </trkpt>
      <trkpt lat="43.218" lon="6.36459">
        <ele>601.7</ele>
        <time>2021-03-11T20:28:14Z</time>
      </trkpt>
      <trkpt lat="43.21807" lon="6.3647">
        <ele>601</ele>
        <time>2021-03-11T20:28:14Z</time>
      </trkpt>
      <trkpt lat="43.21854" lon="6.36485">
        <ele>598.7</ele>
        <time>2021-03-11T20:28:14Z</time>
      </trkpt>
      <trkpt lat="43.21859" lon="6.36495">
        <ele>598.8</ele>
        <time>2021-03-11T20:28:14Z</time>
      </trkpt>
      <trkpt lat="43.21862" lon="6.3652">
        <ele>598.3</ele>
        <time>2021-03-11T20:28:14Z</time>
      </trkpt>
      <trkpt lat="43.21868" lon="6.36532">
        <ele>597.4</ele>
        <time>2021-03-11T20:28:14Z</time>
      </trkpt>
      <trkpt lat="43.21908" lon="6.36551">
        <ele>595.2</ele>
        <time>2021-03-11T20:28:14Z</time>
      </trkpt>
      <trkpt lat="43.21919" lon="6.36565">
        <ele>594.6</ele>
        <time>2021-03-11T20:28:14Z</time>
      </trkpt>
      <trkpt lat="43.21924" lon="6.36579">
        <ele>593.8</ele>
        <time>2021-03-11T20:28:14Z</time>
      </trkpt>
      <trkpt lat="43.21923" lon="6.36594">
        <ele>593.3</ele>
        <time>2021-03-11T20:28:14Z</time>
      </trkpt>
      <trkpt lat="43.21893" lon="6.36748">
        <ele>594.7</ele>
        <time>2021-03-11T20:28:14Z</time>
      </trkpt>
      <trkpt lat="43.219" lon="6.36897">
        <ele>597.7</ele>
        <time>2021-03-11T20:28:14Z</time>
      </trkpt>
      <trkpt lat="43.21891" lon="6.3691">
        <ele>597</ele>
        <time>2021-03-11T20:28:14Z</time>
      </trkpt>
      <trkpt lat="43.21877" lon="6.36922">
        <ele>597.6</ele>
        <time>2021-03-11T20:28:14Z</time>
      </trkpt>
      <trkpt lat="43.2186" lon="6.36946">
        <ele>600.2</ele>
        <time>2021-03-11T20:28:14Z</time>
      </trkpt>
      <trkpt lat="43.21839" lon="6.37008">
        <ele>604.6</ele>
        <time>2021-03-11T20:28:14Z</time>
      </trkpt>
      <trkpt lat="43.21834" lon="6.37015">
        <ele>605.4</ele>
        <time>2021-03-11T20:28:14Z</time>
      </trkpt>
      <trkpt lat="43.21794" lon="6.37043">
        <ele>608.4</ele>
        <time>2021-03-11T20:28:14Z</time>
      </trkpt>
      <trkpt lat="43.21789" lon="6.37051">
        <ele>609.1</ele>
        <time>2021-03-11T20:28:14Z</time>
      </trkpt>
      <trkpt lat="43.21768" lon="6.37112">
        <ele>613.7</ele>
        <time>2021-03-11T20:28:14Z</time>
      </trkpt>
      <trkpt lat="43.21762" lon="6.37119">
        <ele>614.7</ele>
        <time>2021-03-11T20:28:14Z</time>
      </trkpt>
      <trkpt lat="43.2175" lon="6.37125">
        <ele>617.4</ele>
        <time>2021-03-11T20:28:14Z</time>
      </trkpt>
      <trkpt lat="43.21739" lon="6.37126">
        <ele>619.2</ele>
        <time>2021-03-11T20:28:14Z</time>
      </trkpt>
      <trkpt lat="43.21732" lon="6.37132">
        <ele>620.6</ele>
        <time>2021-03-11T20:28:14Z</time>
      </trkpt>
      <trkpt lat="43.21724" lon="6.3716">
        <ele>625.5</ele>
        <time>2021-03-11T20:28:14Z</time>
      </trkpt>
      <trkpt lat="43.21706" lon="6.37176">
        <ele>628.7</ele>
        <time>2021-03-11T20:28:14Z</time>
      </trkpt>
      <trkpt lat="43.21699" lon="6.37192">
        <ele>630.3</ele>
        <time>2021-03-11T20:28:14Z</time>
      </trkpt>
      <trkpt lat="43.21698" lon="6.37213">
        <ele>632.7</ele>
        <time>2021-03-11T20:28:14Z</time>
      </trkpt>
      <trkpt lat="43.21692" lon="6.3723">
        <ele>635.4</ele>
        <time>2021-03-11T20:28:14Z</time>
      </trkpt>
      <trkpt lat="43.21696" lon="6.37221">
        <ele>633.7</ele>
        <time>2021-03-11T20:28:14Z</time>
      </trkpt>
      <trkpt lat="43.21702" lon="6.37184">
        <ele>629.5</ele>
        <time>2021-03-11T20:28:14Z</time>
      </trkpt>
      <trkpt lat="43.21721" lon="6.37165">
        <ele>626.9</ele>
        <time>2021-03-11T20:28:14Z</time>
      </trkpt>
      <trkpt lat="43.21727" lon="6.37149">
        <ele>623.6</ele>
        <time>2021-03-11T20:28:14Z</time>
      </trkpt>
      <trkpt lat="43.21729" lon="6.37139">
        <ele>621.8</ele>
        <time>2021-03-11T20:28:14Z</time>
      </trkpt>
      <trkpt lat="43.21733" lon="6.3713">
        <ele>620.3</ele>
        <time>2021-03-11T20:28:14Z</time>
      </trkpt>
      <trkpt lat="43.21744" lon="6.37125">
        <ele>618.4</ele>
        <time>2021-03-11T20:28:14Z</time>
      </trkpt>
      <trkpt lat="43.21757" lon="6.37124">
        <ele>615.8</ele>
        <time>2021-03-11T20:28:14Z</time>
      </trkpt>
      <trkpt lat="43.21768" lon="6.37112">
        <ele>613.7</ele>
        <time>2021-03-11T20:28:14Z</time>
      </trkpt>
      <trkpt lat="43.21789" lon="6.37051">
        <ele>609.1</ele>
        <time>2021-03-11T20:28:14Z</time>
      </trkpt>
      <trkpt lat="43.21794" lon="6.37043">
        <ele>608.4</ele>
        <time>2021-03-11T20:28:14Z</time>
      </trkpt>
      <trkpt lat="43.21834" lon="6.37015">
        <ele>605.4</ele>
        <time>2021-03-11T20:28:14Z</time>
      </trkpt>
      <trkpt lat="43.21839" lon="6.37008">
        <ele>604.6</ele>
        <time>2021-03-11T20:28:14Z</time>
      </trkpt>
      <trkpt lat="43.21851" lon="6.36976">
        <ele>602.5</ele>
        <time>2021-03-11T20:28:14Z</time>
      </trkpt>
      <trkpt lat="43.2186" lon="6.36946">
        <ele>600.2</ele>
        <time>2021-03-11T20:28:14Z</time>
      </trkpt>
      <trkpt lat="43.21876" lon="6.36922">
        <ele>597.6</ele>
        <time>2021-03-11T20:28:14Z</time>
      </trkpt>
      <trkpt lat="43.21889" lon="6.3691">
        <ele>597</ele>
        <time>2021-03-11T20:28:14Z</time>
      </trkpt>
      <trkpt lat="43.219" lon="6.36906">
        <ele>597.2</ele>
        <time>2021-03-11T20:28:14Z</time>
      </trkpt>
      <trkpt lat="43.219" lon="6.36921">
        <ele>596.4</ele>
        <time>2021-03-11T20:28:14Z</time>
      </trkpt>
      <trkpt lat="43.21871" lon="6.37059">
        <ele>590.2</ele>
        <time>2021-03-11T20:28:14Z</time>
      </trkpt>
      <trkpt lat="43.2186" lon="6.3708">
        <ele>590.5</ele>
        <time>2021-03-11T20:28:14Z</time>
      </trkpt>
      <trkpt lat="43.21859" lon="6.371">
        <ele>590.1</ele>
        <time>2021-03-11T20:28:14Z</time>
      </trkpt>
      <trkpt lat="43.21863" lon="6.37116">
        <ele>587</ele>
        <time>2021-03-11T20:28:14Z</time>
      </trkpt>
      <trkpt lat="43.2186" lon="6.37129">
        <ele>585.3</ele>
        <time>2021-03-11T20:28:14Z</time>
      </trkpt>
      <trkpt lat="43.21827" lon="6.37148">
        <ele>588.7</ele>
        <time>2021-03-11T20:28:14Z</time>
      </trkpt>
      <trkpt lat="43.21822" lon="6.37161">
        <ele>588.6</ele>
        <time>2021-03-11T20:28:14Z</time>
      </trkpt>
      <trkpt lat="43.21835" lon="6.37212">
        <ele>586.4</ele>
        <time>2021-03-11T20:28:14Z</time>
      </trkpt>
      <trkpt lat="43.21853" lon="6.37256">
        <ele>583.5</ele>
        <time>2021-03-11T20:28:14Z</time>
      </trkpt>
      <trkpt lat="43.21882" lon="6.37351">
        <ele>578.2</ele>
        <time>2021-03-11T20:28:14Z</time>
      </trkpt>
      <trkpt lat="43.21902" lon="6.37478">
        <ele>572.9</ele>
        <time>2021-03-11T20:28:14Z</time>
      </trkpt>
      <trkpt lat="43.21937" lon="6.376">
        <ele>568.8</ele>
        <time>2021-03-11T20:28:14Z</time>
      </trkpt>
      <trkpt lat="43.21943" lon="6.37612">
        <ele>568.1</ele>
        <time>2021-03-11T20:28:14Z</time>
      </trkpt>
      <trkpt lat="43.21964" lon="6.37639">
        <ele>566.4</ele>
        <time>2021-03-11T20:28:14Z</time>
      </trkpt>
      <trkpt lat="43.21971" lon="6.37655">
        <ele>565.2</ele>
        <time>2021-03-11T20:28:14Z</time>
      </trkpt>
      <trkpt lat="43.21974" lon="6.37667">
        <ele>565.4</ele>
        <time>2021-03-11T20:28:14Z</time>
      </trkpt>
      <trkpt lat="43.21973" lon="6.37715">
        <ele>566.8</ele>
        <time>2021-03-11T20:28:14Z</time>
      </trkpt>
      <trkpt lat="43.2197" lon="6.3774">
        <ele>565.1</ele>
        <time>2021-03-11T20:28:14Z</time>
      </trkpt>
      <trkpt lat="43.2195" lon="6.37796">
        <ele>564.5</ele>
        <time>2021-03-11T20:28:14Z</time>
      </trkpt>
      <trkpt lat="43.21955" lon="6.37882">
        <ele>560</ele>
        <time>2021-03-11T20:28:14Z</time>
      </trkpt>
      <trkpt lat="43.21951" lon="6.37902">
        <ele>559.1</ele>
        <time>2021-03-11T20:28:14Z</time>
      </trkpt>
      <trkpt lat="43.21918" lon="6.37948">
        <ele>558.3</ele>
        <time>2021-03-11T20:28:14Z</time>
      </trkpt>
      <trkpt lat="43.21912" lon="6.37974">
        <ele>557</ele>
        <time>2021-03-11T20:28:14Z</time>
      </trkpt>
      <trkpt lat="43.21921" lon="6.38013">
        <ele>555.3</ele>
        <time>2021-03-11T20:28:14Z</time>
      </trkpt>
      <trkpt lat="43.21921" lon="6.38025">
        <ele>555.5</ele>
        <time>2021-03-11T20:28:14Z</time>
      </trkpt>
      <trkpt lat="43.21925" lon="6.38057">
        <ele>555.4</ele>
        <time>2021-03-11T20:28:14Z</time>
      </trkpt>
      <trkpt lat="43.21968" lon="6.38159">
        <ele>552.7</ele>
        <time>2021-03-11T20:28:14Z</time>
      </trkpt>
      <trkpt lat="43.21971" lon="6.38172">
        <ele>552.1</ele>
        <time>2021-03-11T20:28:14Z</time>
      </trkpt>
      <trkpt lat="43.21966" lon="6.38228">
        <ele>551</ele>
        <time>2021-03-11T20:28:14Z</time>
      </trkpt>
      <trkpt lat="43.21954" lon="6.38272">
        <ele>549.7</ele>
        <time>2021-03-11T20:28:14Z</time>
      </trkpt>
      <trkpt lat="43.21948" lon="6.38326">
        <ele>547</ele>
        <time>2021-03-11T20:28:14Z</time>
      </trkpt>
      <trkpt lat="43.21943" lon="6.38341">
        <ele>548</ele>
        <time>2021-03-11T20:28:14Z</time>
      </trkpt>
      <trkpt lat="43.21944" lon="6.38359">
        <ele>548.2</ele>
        <time>2021-03-11T20:28:14Z</time>
      </trkpt>
      <trkpt lat="43.21958" lon="6.38423">
        <ele>543.5</ele>
        <time>2021-03-11T20:28:14Z</time>
      </trkpt>
      <trkpt lat="43.21958" lon="6.3844">
        <ele>543.3</ele>
        <time>2021-03-11T20:28:14Z</time>
      </trkpt>
      <trkpt lat="43.21937" lon="6.38527">
        <ele>540.5</ele>
        <time>2021-03-11T20:28:14Z</time>
      </trkpt>
      <trkpt lat="43.21935" lon="6.38566">
        <ele>538.7</ele>
        <time>2021-03-11T20:28:14Z</time>
      </trkpt>
      <trkpt lat="43.21926" lon="6.38593">
        <ele>538.9</ele>
        <time>2021-03-11T20:28:14Z</time>
      </trkpt>
      <trkpt lat="43.21926" lon="6.38612">
        <ele>538.4</ele>
        <time>2021-03-11T20:28:14Z</time>
      </trkpt>
      <trkpt lat="43.21935" lon="6.38628">
        <ele>538.1</ele>
        <time>2021-03-11T20:28:14Z</time>
      </trkpt>
      <trkpt lat="43.21955" lon="6.38646">
        <ele>537.1</ele>
        <time>2021-03-11T20:28:14Z</time>
      </trkpt>
      <trkpt lat="43.21962" lon="6.38659">
        <ele>536.8</ele>
        <time>2021-03-11T20:28:14Z</time>
      </trkpt>
      <trkpt lat="43.21972" lon="6.38693">
        <ele>536</ele>
        <time>2021-03-11T20:28:14Z</time>
      </trkpt>
      <trkpt lat="43.21986" lon="6.38803">
        <ele>533.1</ele>
        <time>2021-03-11T20:28:14Z</time>
      </trkpt>
      <trkpt lat="43.22012" lon="6.38867">
        <ele>530.5</ele>
        <time>2021-03-11T20:28:14Z</time>
      </trkpt>
      <trkpt lat="43.22013" lon="6.38885">
        <ele>530.2</ele>
        <time>2021-03-11T20:28:14Z</time>
      </trkpt>
      <trkpt lat="43.2201" lon="6.389">
        <ele>529.6</ele>
        <time>2021-03-11T20:28:14Z</time>
      </trkpt>
      <trkpt lat="43.21994" lon="6.38927">
        <ele>529.3</ele>
        <time>2021-03-11T20:28:14Z</time>
      </trkpt>
      <trkpt lat="43.21993" lon="6.38949">
        <ele>528.8</ele>
        <time>2021-03-11T20:28:14Z</time>
      </trkpt>
      <trkpt lat="43.22017" lon="6.38988">
        <ele>527.4</ele>
        <time>2021-03-11T20:28:14Z</time>
      </trkpt>
      <trkpt lat="43.22049" lon="6.39004">
        <ele>526</ele>
        <time>2021-03-11T20:28:14Z</time>
      </trkpt>
      <trkpt lat="43.22054" lon="6.39011">
        <ele>526</ele>
        <time>2021-03-11T20:28:14Z</time>
      </trkpt>
      <trkpt lat="43.22063" lon="6.3903">
        <ele>525.7</ele>
        <time>2021-03-11T20:28:14Z</time>
      </trkpt>
      <trkpt lat="43.22096" lon="6.39052">
        <ele>523.5</ele>
        <time>2021-03-11T20:28:14Z</time>
      </trkpt>
      <trkpt lat="43.22208" lon="6.39224">
        <ele>522</ele>
        <time>2021-03-11T20:28:14Z</time>
      </trkpt>
      <trkpt lat="43.22237" lon="6.39285">
        <ele>523</ele>
        <time>2021-03-11T20:28:14Z</time>
      </trkpt>
      <trkpt lat="43.22285" lon="6.394">
        <ele>526.4</ele>
        <time>2021-03-11T20:28:14Z</time>
      </trkpt>
      <trkpt lat="43.22317" lon="6.39516">
        <ele>527.8</ele>
        <time>2021-03-11T20:28:14Z</time>
      </trkpt>
      <trkpt lat="43.22328" lon="6.3954">
        <ele>528.9</ele>
        <time>2021-03-11T20:28:14Z</time>
      </trkpt>
      <trkpt lat="43.22356" lon="6.39662">
        <ele>530.8</ele>
        <time>2021-03-11T20:28:14Z</time>
      </trkpt>
      <trkpt lat="43.22363" lon="6.39669">
        <ele>531.7</ele>
        <time>2021-03-11T20:28:14Z</time>
      </trkpt>
      <trkpt lat="43.22394" lon="6.39682">
        <ele>534.1</ele>
        <time>2021-03-11T20:28:14Z</time>
      </trkpt>
      <trkpt lat="43.22426" lon="6.39737">
        <ele>532</ele>
        <time>2021-03-11T20:28:14Z</time>
      </trkpt>
      <trkpt lat="43.22441" lon="6.39769">
        <ele>532</ele>
        <time>2021-03-11T20:28:14Z</time>
      </trkpt>
      <trkpt lat="43.22463" lon="6.39801">
        <ele>533.9</ele>
        <time>2021-03-11T20:28:14Z</time>
      </trkpt>
      <trkpt lat="43.22465" lon="6.39819">
        <ele>535.8</ele>
        <time>2021-03-11T20:28:14Z</time>
      </trkpt>
      <trkpt lat="43.22456" lon="6.39826">
        <ele>535.2</ele>
        <time>2021-03-11T20:28:14Z</time>
      </trkpt>
      <trkpt lat="43.22432" lon="6.39826">
        <ele>531.2</ele>
        <time>2021-03-11T20:28:14Z</time>
      </trkpt>
      <trkpt lat="43.22424" lon="6.39833">
        <ele>531.3</ele>
        <time>2021-03-11T20:28:14Z</time>
      </trkpt>
      <trkpt lat="43.2242" lon="6.39853">
        <ele>532</ele>
        <time>2021-03-11T20:28:14Z</time>
      </trkpt>
      <trkpt lat="43.2241" lon="6.39878">
        <ele>532.1</ele>
        <time>2021-03-11T20:28:14Z</time>
      </trkpt>
      <trkpt lat="43.22389" lon="6.39895">
        <ele>529.5</ele>
        <time>2021-03-11T20:28:14Z</time>
      </trkpt>
      <trkpt lat="43.22383" lon="6.39907">
        <ele>528.4</ele>
        <time>2021-03-11T20:28:14Z</time>
      </trkpt>
      <trkpt lat="43.22381" lon="6.39918">
        <ele>528.1</ele>
        <time>2021-03-11T20:28:14Z</time>
      </trkpt>
      <trkpt lat="43.22385" lon="6.40052">
        <ele>525.4</ele>
        <time>2021-03-11T20:28:14Z</time>
      </trkpt>
      <trkpt lat="43.22404" lon="6.40208">
        <ele>517.7</ele>
        <time>2021-03-11T20:28:14Z</time>
      </trkpt>
      <trkpt lat="43.22413" lon="6.40235">
        <ele>518.7</ele>
        <time>2021-03-11T20:28:14Z</time>
      </trkpt>
      <trkpt lat="43.22412" lon="6.40252">
        <ele>516.4</ele>
        <time>2021-03-11T20:28:14Z</time>
      </trkpt>
      <trkpt lat="43.22389" lon="6.40319">
        <ele>513.1</ele>
        <time>2021-03-11T20:28:14Z</time>
      </trkpt>
      <trkpt lat="43.22382" lon="6.4033">
        <ele>512.8</ele>
        <time>2021-03-11T20:28:14Z</time>
      </trkpt>
      <trkpt lat="43.22379" lon="6.40344">
        <ele>512.9</ele>
        <time>2021-03-11T20:28:14Z</time>
      </trkpt>
      <trkpt lat="43.22378" lon="6.40365">
        <ele>512.7</ele>
        <time>2021-03-11T20:28:14Z</time>
      </trkpt>
      <trkpt lat="43.22381" lon="6.4038">
        <ele>511.9</ele>
        <time>2021-03-11T20:28:14Z</time>
      </trkpt>
      <trkpt lat="43.22401" lon="6.40393">
        <ele>513.1</ele>
        <time>2021-03-11T20:28:14Z</time>
      </trkpt>
      <trkpt lat="43.22404" lon="6.40404">
        <ele>513.3</ele>
        <time>2021-03-11T20:28:14Z</time>
      </trkpt>
      <trkpt lat="43.22385" lon="6.40447">
        <ele>509.4</ele>
        <time>2021-03-11T20:28:14Z</time>
      </trkpt>
      <trkpt lat="43.22373" lon="6.40494">
        <ele>508.3</ele>
        <time>2021-03-11T20:28:14Z</time>
      </trkpt>
      <trkpt lat="43.22381" lon="6.4055">
        <ele>507</ele>
        <time>2021-03-11T20:28:14Z</time>
      </trkpt>
      <trkpt lat="43.2239" lon="6.40585">
        <ele>506</ele>
        <time>2021-03-11T20:28:14Z</time>
      </trkpt>
      <trkpt lat="43.22438" lon="6.40686">
        <ele>502.6</ele>
        <time>2021-03-11T20:28:14Z</time>
      </trkpt>
      <trkpt lat="43.2244" lon="6.40701">
        <ele>502.5</ele>
        <time>2021-03-11T20:28:14Z</time>
      </trkpt>
      <trkpt lat="43.2243" lon="6.4077">
        <ele>501.4</ele>
        <time>2021-03-11T20:28:14Z</time>
      </trkpt>
      <trkpt lat="43.22421" lon="6.40803">
        <ele>501</ele>
        <time>2021-03-11T20:28:14Z</time>
      </trkpt>
      <trkpt lat="43.2242" lon="6.4082">
        <ele>500.9</ele>
        <time>2021-03-11T20:28:14Z</time>
      </trkpt>
      <trkpt lat="43.22425" lon="6.40831">
        <ele>500.4</ele>
        <time>2021-03-11T20:28:14Z</time>
      </trkpt>
      <trkpt lat="43.22436" lon="6.40831">
        <ele>499.8</ele>
        <time>2021-03-11T20:28:14Z</time>
      </trkpt>
      <trkpt lat="43.22452" lon="6.40821">
        <ele>499.6</ele>
        <time>2021-03-11T20:28:14Z</time>
      </trkpt>
      <trkpt lat="43.22462" lon="6.40817">
        <ele>499.5</ele>
        <time>2021-03-11T20:28:14Z</time>
      </trkpt>
      <trkpt lat="43.22471" lon="6.40822">
        <ele>498.9</ele>
        <time>2021-03-11T20:28:14Z</time>
      </trkpt>
      <trkpt lat="43.22479" lon="6.40835">
        <ele>498.6</ele>
        <time>2021-03-11T20:28:14Z</time>
      </trkpt>
      <trkpt lat="43.22499" lon="6.40888">
        <ele>495</ele>
        <time>2021-03-11T20:28:14Z</time>
      </trkpt>
      <trkpt lat="43.22505" lon="6.40895">
        <ele>493.9</ele>
        <time>2021-03-11T20:28:14Z</time>
      </trkpt>
      <trkpt lat="43.22541" lon="6.4091">
        <ele>491.5</ele>
        <time>2021-03-11T20:28:14Z</time>
      </trkpt>
      <trkpt lat="43.22641" lon="6.40926">
        <ele>486.6</ele>
        <time>2021-03-11T20:28:14Z</time>
      </trkpt>
      <trkpt lat="43.22656" lon="6.40919">
        <ele>487.5</ele>
        <time>2021-03-11T20:28:14Z</time>
      </trkpt>
      <trkpt lat="43.22669" lon="6.40904">
        <ele>487</ele>
        <time>2021-03-11T20:28:14Z</time>
      </trkpt>
      <trkpt lat="43.22699" lon="6.40885">
        <ele>483.6</ele>
        <time>2021-03-11T20:28:14Z</time>
      </trkpt>
      <trkpt lat="43.22705" lon="6.40875">
        <ele>482.1</ele>
        <time>2021-03-11T20:28:14Z</time>
      </trkpt>
      <trkpt lat="43.22699" lon="6.40778">
        <ele>478.4</ele>
        <time>2021-03-11T20:28:14Z</time>
      </trkpt>
      <trkpt lat="43.22666" lon="6.40628">
        <ele>471.1</ele>
        <time>2021-03-11T20:28:14Z</time>
      </trkpt>
      <trkpt lat="43.22668" lon="6.40617">
        <ele>470.8</ele>
        <time>2021-03-11T20:28:14Z</time>
      </trkpt>
      <trkpt lat="43.22722" lon="6.40614">
        <ele>466</ele>
        <time>2021-03-11T20:28:14Z</time>
      </trkpt>
      <trkpt lat="43.228" lon="6.40626">
        <ele>462.9</ele>
        <time>2021-03-11T20:28:14Z</time>
      </trkpt>
      <trkpt lat="43.22816" lon="6.40637">
        <ele>460.4</ele>
        <time>2021-03-11T20:28:14Z</time>
      </trkpt>
      <trkpt lat="43.22841" lon="6.40646">
        <ele>460.6</ele>
        <time>2021-03-11T20:28:14Z</time>
      </trkpt>
      <trkpt lat="43.22859" lon="6.40659">
        <ele>458.2</ele>
        <time>2021-03-11T20:28:14Z</time>
      </trkpt>
      <trkpt lat="43.22872" lon="6.40659">
        <ele>460</ele>
        <time>2021-03-11T20:28:14Z</time>
      </trkpt>
      <trkpt lat="43.22944" lon="6.407">
        <ele>454.9</ele>
        <time>2021-03-11T20:28:14Z</time>
      </trkpt>
      <trkpt lat="43.22953" lon="6.40699">
        <ele>453.9</ele>
        <time>2021-03-11T20:28:14Z</time>
      </trkpt>
      <trkpt lat="43.22964" lon="6.40687">
        <ele>454.6</ele>
        <time>2021-03-11T20:28:14Z</time>
      </trkpt>
      <trkpt lat="43.22973" lon="6.40653">
        <ele>457.4</ele>
        <time>2021-03-11T20:28:14Z</time>
      </trkpt>
      <trkpt lat="43.2299" lon="6.40532">
        <ele>459</ele>
        <time>2021-03-11T20:28:14Z</time>
      </trkpt>
      <trkpt lat="43.22997" lon="6.40506">
        <ele>461.1</ele>
        <time>2021-03-11T20:28:14Z</time>
      </trkpt>
      <trkpt lat="43.23005" lon="6.40512">
        <ele>459.8</ele>
        <time>2021-03-11T20:28:14Z</time>
      </trkpt>
      <trkpt lat="43.23043" lon="6.4056">
        <ele>457.6</ele>
        <time>2021-03-11T20:28:14Z</time>
      </trkpt>
      <trkpt lat="43.23072" lon="6.4063">
        <ele>453.6</ele>
        <time>2021-03-11T20:28:14Z</time>
      </trkpt>
      <trkpt lat="43.23103" lon="6.40667">
        <ele>452.8</ele>
        <time>2021-03-11T20:28:14Z</time>
      </trkpt>
      <trkpt lat="43.23197" lon="6.40727">
        <ele>450.1</ele>
        <time>2021-03-11T20:28:14Z</time>
      </trkpt>
      <trkpt lat="43.23234" lon="6.40773">
        <ele>448.5</ele>
        <time>2021-03-11T20:28:14Z</time>
      </trkpt>
      <trkpt lat="43.23275" lon="6.40871">
        <ele>444</ele>
        <time>2021-03-11T20:28:14Z</time>
      </trkpt>
      <trkpt lat="43.23326" lon="6.4092">
        <ele>441.7</ele>
        <time>2021-03-11T20:28:14Z</time>
      </trkpt>
      <trkpt lat="43.23352" lon="6.40933">
        <ele>440.4</ele>
        <time>2021-03-11T20:28:14Z</time>
      </trkpt>
      <trkpt lat="43.23367" lon="6.40934">
        <ele>439.6</ele>
        <time>2021-03-11T20:28:14Z</time>
      </trkpt>
      <trkpt lat="43.23415" lon="6.40896">
        <ele>440</ele>
        <time>2021-03-11T20:28:14Z</time>
      </trkpt>
      <trkpt lat="43.23425" lon="6.40888">
        <ele>440</ele>
        <time>2021-03-11T20:28:14Z</time>
      </trkpt>
      <trkpt lat="43.23431" lon="6.4086">
        <ele>442</ele>
        <time>2021-03-11T20:28:14Z</time>
      </trkpt>
      <trkpt lat="43.23431" lon="6.40839">
        <ele>441.6</ele>
        <time>2021-03-11T20:28:14Z</time>
      </trkpt>
      <trkpt lat="43.23427" lon="6.40829">
        <ele>442</ele>
        <time>2021-03-11T20:28:14Z</time>
      </trkpt>
      <trkpt lat="43.23404" lon="6.40777">
        <ele>444.5</ele>
        <time>2021-03-11T20:28:14Z</time>
      </trkpt>
      <trkpt lat="43.23391" lon="6.40764">
        <ele>445.3</ele>
        <time>2021-03-11T20:28:14Z</time>
      </trkpt>
      <trkpt lat="43.23345" lon="6.40738">
        <ele>449.3</ele>
        <time>2021-03-11T20:28:14Z</time>
      </trkpt>
      <trkpt lat="43.23307" lon="6.40732">
        <ele>452.3</ele>
        <time>2021-03-11T20:28:14Z</time>
      </trkpt>
      <trkpt lat="43.23295" lon="6.40725">
        <ele>453.1</ele>
        <time>2021-03-11T20:28:14Z</time>
      </trkpt>
      <trkpt lat="43.23285" lon="6.40709">
        <ele>453.7</ele>
        <time>2021-03-11T20:28:14Z</time>
      </trkpt>
      <trkpt lat="43.23275" lon="6.40685">
        <ele>454.6</ele>
        <time>2021-03-11T20:28:14Z</time>
      </trkpt>
      <trkpt lat="43.23264" lon="6.40634">
        <ele>454.9</ele>
        <time>2021-03-11T20:28:14Z</time>
      </trkpt>
      <trkpt lat="43.23256" lon="6.40637">
        <ele>458.7</ele>
        <time>2021-03-11T20:28:14Z</time>
      </trkpt>
      <trkpt lat="43.23257" lon="6.40661">
        <ele>458.6</ele>
        <time>2021-03-11T20:28:14Z</time>
      </trkpt>
      <trkpt lat="43.23266" lon="6.40708">
        <ele>458.8</ele>
        <time>2021-03-11T20:28:14Z</time>
      </trkpt>
      <trkpt lat="43.23267" lon="6.40728">
        <ele>459.5</ele>
        <time>2021-03-11T20:28:14Z</time>
      </trkpt>
      <trkpt lat="43.23262" lon="6.40738">
        <ele>460.4</ele>
        <time>2021-03-11T20:28:14Z</time>
      </trkpt>
      <trkpt lat="43.2324" lon="6.40721">
        <ele>461.6</ele>
        <time>2021-03-11T20:28:14Z</time>
      </trkpt>
      <trkpt lat="43.23231" lon="6.40701">
        <ele>463.9</ele>
        <time>2021-03-11T20:28:14Z</time>
      </trkpt>
      <trkpt lat="43.23229" lon="6.40671">
        <ele>466.1</ele>
        <time>2021-03-11T20:28:14Z</time>
      </trkpt>
      <trkpt lat="43.23232" lon="6.40601">
        <ele>469</ele>
        <time>2021-03-11T20:28:14Z</time>
      </trkpt>
      <trkpt lat="43.23217" lon="6.4052">
        <ele>473.2</ele>
        <time>2021-03-11T20:28:14Z</time>
      </trkpt>
      <trkpt lat="43.23219" lon="6.40478">
        <ele>473.7</ele>
        <time>2021-03-11T20:28:14Z</time>
      </trkpt>
      <trkpt lat="43.23223" lon="6.40464">
        <ele>474.7</ele>
        <time>2021-03-11T20:28:14Z</time>
      </trkpt>
      <trkpt lat="43.23262" lon="6.4032">
        <ele>482</ele>
        <time>2021-03-11T20:28:14Z</time>
      </trkpt>
      <trkpt lat="43.23264" lon="6.40287">
        <ele>483.5</ele>
        <time>2021-03-11T20:28:14Z</time>
      </trkpt>
      <trkpt lat="43.23255" lon="6.40205">
        <ele>486.5</ele>
        <time>2021-03-11T20:28:14Z</time>
      </trkpt>
      <trkpt lat="43.2333" lon="6.4007">
        <ele>493</ele>
        <time>2021-03-11T20:28:14Z</time>
      </trkpt>
      <trkpt lat="43.2333" lon="6.40056">
        <ele>494.6</ele>
        <time>2021-03-11T20:28:14Z</time>
      </trkpt>
      <trkpt lat="43.23323" lon="6.40036">
        <ele>493.7</ele>
        <time>2021-03-11T20:28:14Z</time>
      </trkpt>
      <trkpt lat="43.23304" lon="6.40005">
        <ele>493.2</ele>
        <time>2021-03-11T20:28:14Z</time>
      </trkpt>
      <trkpt lat="43.23272" lon="6.39974">
        <ele>494.8</ele>
        <time>2021-03-11T20:28:14Z</time>
      </trkpt>
      <trkpt lat="43.23269" lon="6.39954">
        <ele>493.9</ele>
        <time>2021-03-11T20:28:14Z</time>
      </trkpt>
      <trkpt lat="43.23271" lon="6.39945">
        <ele>491.8</ele>
        <time>2021-03-11T20:28:14Z</time>
      </trkpt>
      <trkpt lat="43.23305" lon="6.39917">
        <ele>491.2</ele>
        <time>2021-03-11T20:28:14Z</time>
      </trkpt>
      <trkpt lat="43.23326" lon="6.39877">
        <ele>490.4</ele>
        <time>2021-03-11T20:28:14Z</time>
      </trkpt>
      <trkpt lat="43.2333" lon="6.39856">
        <ele>490.4</ele>
        <time>2021-03-11T20:28:14Z</time>
      </trkpt>
      <trkpt lat="43.23327" lon="6.39832">
        <ele>490.8</ele>
        <time>2021-03-11T20:28:14Z</time>
      </trkpt>
      <trkpt lat="43.23292" lon="6.39767">
        <ele>493.7</ele>
        <time>2021-03-11T20:28:14Z</time>
      </trkpt>
      <trkpt lat="43.23279" lon="6.39752">
        <ele>494.4</ele>
        <time>2021-03-11T20:28:14Z</time>
      </trkpt>
      <trkpt lat="43.23275" lon="6.39742">
        <ele>496.1</ele>
        <time>2021-03-11T20:28:14Z</time>
      </trkpt>
      <trkpt lat="43.23296" lon="6.39673">
        <ele>490.2</ele>
        <time>2021-03-11T20:28:14Z</time>
      </trkpt>
      <trkpt lat="43.23296" lon="6.39657">
        <ele>489.3</ele>
        <time>2021-03-11T20:28:14Z</time>
      </trkpt>
      <trkpt lat="43.23291" lon="6.3964">
        <ele>491</ele>
        <time>2021-03-11T20:28:14Z</time>
      </trkpt>
      <trkpt lat="43.23221" lon="6.39543">
        <ele>500</ele>
        <time>2021-03-11T20:28:14Z</time>
      </trkpt>
      <trkpt lat="43.23177" lon="6.39519">
        <ele>504.1</ele>
        <time>2021-03-11T20:28:14Z</time>
      </trkpt>
      <trkpt lat="43.23171" lon="6.39504">
        <ele>504</ele>
        <time>2021-03-11T20:28:14Z</time>
      </trkpt>
      <trkpt lat="43.23156" lon="6.39429">
        <ele>503.8</ele>
        <time>2021-03-11T20:28:14Z</time>
      </trkpt>
      <trkpt lat="43.23146" lon="6.3941">
        <ele>504.6</ele>
        <time>2021-03-11T20:28:14Z</time>
      </trkpt>
      <trkpt lat="43.23132" lon="6.39394">
        <ele>504</ele>
        <time>2021-03-11T20:28:14Z</time>
      </trkpt>
      <trkpt lat="43.23093" lon="6.39372">
        <ele>507.6</ele>
        <time>2021-03-11T20:28:14Z</time>
      </trkpt>
      <trkpt lat="43.23088" lon="6.39357">
        <ele>507.8</ele>
        <time>2021-03-11T20:28:14Z</time>
      </trkpt>
      <trkpt lat="43.23102" lon="6.39307">
        <ele>507.6</ele>
        <time>2021-03-11T20:28:14Z</time>
      </trkpt>
      <trkpt lat="43.23096" lon="6.39257">
        <ele>507.2</ele>
        <time>2021-03-11T20:28:14Z</time>
      </trkpt>
      <trkpt lat="43.23075" lon="6.39167">
        <ele>510.6</ele>
        <time>2021-03-11T20:28:14Z</time>
      </trkpt>
      <trkpt lat="43.23076" lon="6.39133">
        <ele>509.7</ele>
        <time>2021-03-11T20:28:14Z</time>
      </trkpt>
      <trkpt lat="43.23043" lon="6.38974">
        <ele>503.4</ele>
        <time>2021-03-11T20:28:14Z</time>
      </trkpt>
      <trkpt lat="43.23032" lon="6.3884">
        <ele>498</ele>
        <time>2021-03-11T20:28:14Z</time>
      </trkpt>
      <trkpt lat="43.23025" lon="6.38822">
        <ele>497.1</ele>
        <time>2021-03-11T20:28:14Z</time>
      </trkpt>
      <trkpt lat="43.22962" lon="6.38733">
        <ele>495.2</ele>
        <time>2021-03-11T20:28:14Z</time>
      </trkpt>
      <trkpt lat="43.22953" lon="6.38716">
        <ele>494.7</ele>
        <time>2021-03-11T20:28:14Z</time>
      </trkpt>
      <trkpt lat="43.22935" lon="6.38553">
        <ele>487.2</ele>
        <time>2021-03-11T20:28:14Z</time>
      </trkpt>
      <trkpt lat="43.22885" lon="6.38445">
        <ele>482</ele>
        <time>2021-03-11T20:28:14Z</time>
      </trkpt>
      <trkpt lat="43.2289" lon="6.38425">
        <ele>481.3</ele>
        <time>2021-03-11T20:28:14Z</time>
      </trkpt>
      <trkpt lat="43.22898" lon="6.3841">
        <ele>479.3</ele>
        <time>2021-03-11T20:28:14Z</time>
      </trkpt>
      <trkpt lat="43.22911" lon="6.38404">
        <ele>479</ele>
        <time>2021-03-11T20:28:14Z</time>
      </trkpt>
      <trkpt lat="43.22923" lon="6.38404">
        <ele>480.3</ele>
        <time>2021-03-11T20:28:14Z</time>
      </trkpt>
      <trkpt lat="43.22931" lon="6.38394">
        <ele>479.6</ele>
        <time>2021-03-11T20:28:14Z</time>
      </trkpt>
      <trkpt lat="43.22937" lon="6.38354">
        <ele>475</ele>
        <time>2021-03-11T20:28:14Z</time>
      </trkpt>
      <trkpt lat="43.22961" lon="6.38297">
        <ele>471.6</ele>
        <time>2021-03-11T20:28:14Z</time>
      </trkpt>
      <trkpt lat="43.2297" lon="6.38286">
        <ele>471.1</ele>
        <time>2021-03-11T20:28:14Z</time>
      </trkpt>
      <trkpt lat="43.22939" lon="6.38276">
        <ele>466.5</ele>
        <time>2021-03-11T20:28:14Z</time>
      </trkpt>
      <trkpt lat="43.22932" lon="6.38274">
        <ele>464.6</ele>
        <time>2021-03-11T20:28:14Z</time>
      </trkpt>
      <trkpt lat="43.22909" lon="6.3822">
        <ele>452.7</ele>
        <time>2021-03-11T20:28:14Z</time>
      </trkpt>
      <trkpt lat="43.22912" lon="6.38185">
        <ele>450.3</ele>
        <time>2021-03-11T20:28:14Z</time>
      </trkpt>
      <trkpt lat="43.22902" lon="6.38132">
        <ele>442.8</ele>
        <time>2021-03-11T20:28:14Z</time>
      </trkpt>
      <trkpt lat="43.22897" lon="6.3812">
        <ele>440.7</ele>
        <time>2021-03-11T20:28:14Z</time>
      </trkpt>
      <trkpt lat="43.22893" lon="6.38103">
        <ele>436.9</ele>
        <time>2021-03-11T20:28:14Z</time>
      </trkpt>
      <trkpt lat="43.22891" lon="6.37903">
        <ele>377.7</ele>
        <time>2021-03-11T20:28:14Z</time>
      </trkpt>
      <trkpt lat="43.22834" lon="6.37784">
        <ele>346</ele>
        <time>2021-03-11T20:28:14Z</time>
      </trkpt>
      <trkpt lat="43.22817" lon="6.37729">
        <ele>336.8</ele>
        <time>2021-03-11T20:28:14Z</time>
      </trkpt>
      <trkpt lat="43.228" lon="6.37747">
        <ele>336.6</ele>
        <time>2021-03-11T20:28:14Z</time>
      </trkpt>
      <trkpt lat="43.22762" lon="6.37788">
        <ele>337</ele>
        <time>2021-03-11T20:28:14Z</time>
      </trkpt>
      <trkpt lat="43.22754" lon="6.37792">
        <ele>335.8</ele>
        <time>2021-03-11T20:28:14Z</time>
      </trkpt>
      <trkpt lat="43.22744" lon="6.3779">
        <ele>336.3</ele>
        <time>2021-03-11T20:28:14Z</time>
      </trkpt>
      <trkpt lat="43.22742" lon="6.37778">
        <ele>337.3</ele>
        <time>2021-03-11T20:28:14Z</time>
      </trkpt>
      <trkpt lat="43.22766" lon="6.37733">
        <ele>337.2</ele>
        <time>2021-03-11T20:28:14Z</time>
      </trkpt>
      <trkpt lat="43.22803" lon="6.376">
        <ele>336.3</ele>
        <time>2021-03-11T20:28:14Z</time>
      </trkpt>
      <trkpt lat="43.22802" lon="6.37582">
        <ele>337</ele>
        <time>2021-03-11T20:28:14Z</time>
      </trkpt>
      <trkpt lat="43.2281" lon="6.37571">
        <ele>336.6</ele>
        <time>2021-03-11T20:28:14Z</time>
      </trkpt>
      <trkpt lat="43.22829" lon="6.375">
        <ele>337.4</ele>
        <time>2021-03-11T20:28:14Z</time>
      </trkpt>
      <trkpt lat="43.22827" lon="6.37486">
        <ele>339.7</ele>
        <time>2021-03-11T20:28:14Z</time>
      </trkpt>
      <trkpt lat="43.2288" lon="6.37342">
        <ele>340.5</ele>
        <time>2021-03-11T20:28:14Z</time>
      </trkpt>
      <trkpt lat="43.22886" lon="6.37299">
        <ele>341.2</ele>
        <time>2021-03-11T20:28:14Z</time>
      </trkpt>
      <trkpt lat="43.22877" lon="6.37262">
        <ele>344.7</ele>
        <time>2021-03-11T20:28:14Z</time>
      </trkpt>
      <trkpt lat="43.2288" lon="6.37245">
        <ele>344.1</ele>
        <time>2021-03-11T20:28:14Z</time>
      </trkpt>
      <trkpt lat="43.2289" lon="6.37238">
        <ele>342.1</ele>
        <time>2021-03-11T20:28:14Z</time>
      </trkpt>
      <trkpt lat="43.22894" lon="6.37222">
        <ele>343.3</ele>
        <time>2021-03-11T20:28:14Z</time>
      </trkpt>
      <trkpt lat="43.22896" lon="6.37173">
        <ele>344.1</ele>
        <time>2021-03-11T20:28:14Z</time>
      </trkpt>
      <trkpt lat="43.22888" lon="6.37144">
        <ele>344.8</ele>
        <time>2021-03-11T20:28:14Z</time>
      </trkpt>
      <trkpt lat="43.22894" lon="6.37131">
        <ele>345.6</ele>
        <time>2021-03-11T20:28:14Z</time>
      </trkpt>
      <trkpt lat="43.22902" lon="6.37129">
        <ele>344</ele>
        <time>2021-03-11T20:28:14Z</time>
      </trkpt>
      <trkpt lat="43.22948" lon="6.37047">
        <ele>346.6</ele>
        <time>2021-03-11T20:28:14Z</time>
      </trkpt>
      <trkpt lat="43.2295" lon="6.37024">
        <ele>348.8</ele>
        <time>2021-03-11T20:28:14Z</time>
      </trkpt>
      <trkpt lat="43.22967" lon="6.36997">
        <ele>349.5</ele>
        <time>2021-03-11T20:28:14Z</time>
      </trkpt>
      <trkpt lat="43.22974" lon="6.36992">
        <ele>349.8</ele>
        <time>2021-03-11T20:28:14Z</time>
      </trkpt>
      <trkpt lat="43.22985" lon="6.36992">
        <ele>348.2</ele>
        <time>2021-03-11T20:28:14Z</time>
      </trkpt>
      <trkpt lat="43.23004" lon="6.36979">
        <ele>349.2</ele>
        <time>2021-03-11T20:28:14Z</time>
      </trkpt>
      <trkpt lat="43.23062" lon="6.36905">
        <ele>350.5</ele>
        <time>2021-03-11T20:28:14Z</time>
      </trkpt>
      <trkpt lat="43.23073" lon="6.36876">
        <ele>352.2</ele>
        <time>2021-03-11T20:28:14Z</time>
      </trkpt>
      <trkpt lat="43.23096" lon="6.3686">
        <ele>350.1</ele>
        <time>2021-03-11T20:28:14Z</time>
      </trkpt>
      <trkpt lat="43.23105" lon="6.36837">
        <ele>353</ele>
        <time>2021-03-11T20:28:14Z</time>
      </trkpt>
      <trkpt lat="43.23129" lon="6.36822">
        <ele>352.4</ele>
        <time>2021-03-11T20:28:14Z</time>
      </trkpt>
      <trkpt lat="43.23135" lon="6.36809">
        <ele>354.3</ele>
        <time>2021-03-11T20:28:14Z</time>
      </trkpt>
      <trkpt lat="43.23156" lon="6.36797">
        <ele>353.2</ele>
        <time>2021-03-11T20:28:14Z</time>
      </trkpt>
      <trkpt lat="43.23181" lon="6.36768">
        <ele>356.4</ele>
        <time>2021-03-11T20:28:14Z</time>
      </trkpt>
      <trkpt lat="43.23206" lon="6.36754">
        <ele>355.2</ele>
        <time>2021-03-11T20:28:14Z</time>
      </trkpt>
      <trkpt lat="43.23218" lon="6.36744">
        <ele>355.4</ele>
        <time>2021-03-11T20:28:14Z</time>
      </trkpt>
      <trkpt lat="43.23232" lon="6.36716">
        <ele>355.2</ele>
        <time>2021-03-11T20:28:14Z</time>
      </trkpt>
      <trkpt lat="43.23234" lon="6.36685">
        <ele>359</ele>
        <time>2021-03-11T20:28:14Z</time>
      </trkpt>
      <trkpt lat="43.23252" lon="6.36657">
        <ele>357.5</ele>
        <time>2021-03-11T20:28:14Z</time>
      </trkpt>
      <trkpt lat="43.23276" lon="6.3658">
        <ele>359.1</ele>
        <time>2021-03-11T20:28:14Z</time>
      </trkpt>
      <trkpt lat="43.23312" lon="6.36533">
        <ele>360.1</ele>
        <time>2021-03-11T20:28:14Z</time>
      </trkpt>
      <trkpt lat="43.23322" lon="6.36515">
        <ele>360.3</ele>
        <time>2021-03-11T20:28:14Z</time>
      </trkpt>
      <trkpt lat="43.23324" lon="6.36498">
        <ele>360.5</ele>
        <time>2021-03-11T20:28:14Z</time>
      </trkpt>
      <trkpt lat="43.2332" lon="6.36487">
        <ele>360.4</ele>
        <time>2021-03-11T20:28:14Z</time>
      </trkpt>
      <trkpt lat="43.23316" lon="6.36479">
        <ele>360.4</ele>
        <time>2021-03-11T20:28:14Z</time>
      </trkpt>
      <trkpt lat="43.23304" lon="6.36475">
        <ele>361.2</ele>
        <time>2021-03-11T20:28:14Z</time>
      </trkpt>
      <trkpt lat="43.23295" lon="6.36475">
        <ele>361</ele>
        <time>2021-03-11T20:28:14Z</time>
      </trkpt>
      <trkpt lat="43.2328" lon="6.36482">
        <ele>361.4</ele>
        <time>2021-03-11T20:28:14Z</time>
      </trkpt>
      <trkpt lat="43.23272" lon="6.36491">
        <ele>361</ele>
        <time>2021-03-11T20:28:14Z</time>
      </trkpt>
      <trkpt lat="43.23268" lon="6.36506">
        <ele>361.1</ele>
        <time>2021-03-11T20:28:14Z</time>
      </trkpt>
      <trkpt lat="43.2327" lon="6.36535">
        <ele>362.2</ele>
        <time>2021-03-11T20:28:14Z</time>
      </trkpt>
      <trkpt lat="43.23266" lon="6.36546">
        <ele>362.3</ele>
        <time>2021-03-11T20:28:14Z</time>
      </trkpt>
      <trkpt lat="43.23258" lon="6.36551">
        <ele>362.3</ele>
        <time>2021-03-11T20:28:14Z</time>
      </trkpt>
      <trkpt lat="43.23162" lon="6.3656">
        <ele>363.6</ele>
        <time>2021-03-11T20:28:14Z</time>
      </trkpt>
      <trkpt lat="43.23152" lon="6.36558">
        <ele>365.5</ele>
        <time>2021-03-11T20:28:14Z</time>
      </trkpt>
      <trkpt lat="43.23154" lon="6.36452">
        <ele>363.7</ele>
        <time>2021-03-11T20:28:14Z</time>
      </trkpt>
      <trkpt lat="43.23145" lon="6.36428">
        <ele>364.7</ele>
        <time>2021-03-11T20:28:14Z</time>
      </trkpt>
      <trkpt lat="43.23135" lon="6.36419">
        <ele>365.7</ele>
        <time>2021-03-11T20:28:14Z</time>
      </trkpt>
      <trkpt lat="43.23101" lon="6.36414">
        <ele>366</ele>
        <time>2021-03-11T20:28:14Z</time>
      </trkpt>
      <trkpt lat="43.23085" lon="6.3642">
        <ele>367</ele>
        <time>2021-03-11T20:28:14Z</time>
      </trkpt>
      <trkpt lat="43.23046" lon="6.36369">
        <ele>370.1</ele>
        <time>2021-03-11T20:28:14Z</time>
      </trkpt>
      <trkpt lat="43.23022" lon="6.36351">
        <ele>371.1</ele>
        <time>2021-03-11T20:28:14Z</time>
      </trkpt>
      <trkpt lat="43.23007" lon="6.36348">
        <ele>371.9</ele>
        <time>2021-03-11T20:28:14Z</time>
      </trkpt>
      <trkpt lat="43.22998" lon="6.36349">
        <ele>372.7</ele>
        <time>2021-03-11T20:28:14Z</time>
      </trkpt>
      <trkpt lat="43.22953" lon="6.36386">
        <ele>375.9</ele>
        <time>2021-03-11T20:28:14Z</time>
      </trkpt>
      <trkpt lat="43.2289" lon="6.36407">
        <ele>378.9</ele>
        <time>2021-03-11T20:28:14Z</time>
      </trkpt>
      <trkpt lat="43.22883" lon="6.36404">
        <ele>378.9</ele>
        <time>2021-03-11T20:28:14Z</time>
      </trkpt>
      <trkpt lat="43.22878" lon="6.36392">
        <ele>378.6</ele>
        <time>2021-03-11T20:28:14Z</time>
      </trkpt>
      <trkpt lat="43.22893" lon="6.36372">
        <ele>378.6</ele>
        <time>2021-03-11T20:28:14Z</time>
      </trkpt>
      <trkpt lat="43.22928" lon="6.36307">
        <ele>381.4</ele>
        <time>2021-03-11T20:28:14Z</time>
      </trkpt>
      <trkpt lat="43.22936" lon="6.36265">
        <ele>384.8</ele>
        <time>2021-03-11T20:28:14Z</time>
      </trkpt>
      <trkpt lat="43.22959" lon="6.36213">
        <ele>386.2</ele>
        <time>2021-03-11T20:28:14Z</time>
      </trkpt>
      <trkpt lat="43.22971" lon="6.36151">
        <ele>390.2</ele>
        <time>2021-03-11T20:28:14Z</time>
      </trkpt>
      <trkpt lat="43.22991" lon="6.36143">
        <ele>392.1</ele>
        <time>2021-03-11T20:28:14Z</time>
      </trkpt>
      <trkpt lat="43.23038" lon="6.36153">
        <ele>391.4</ele>
        <time>2021-03-11T20:28:14Z</time>
      </trkpt>
      <trkpt lat="43.231" lon="6.3615">
        <ele>393.1</ele>
        <time>2021-03-11T20:28:14Z</time>
      </trkpt>
      <trkpt lat="43.23112" lon="6.36144">
        <ele>394.3</ele>
        <time>2021-03-11T20:28:14Z</time>
      </trkpt>
      <trkpt lat="43.23118" lon="6.36138">
        <ele>394.3</ele>
        <time>2021-03-11T20:28:14Z</time>
      </trkpt>
      <trkpt lat="43.23126" lon="6.36126">
        <ele>394.7</ele>
        <time>2021-03-11T20:28:14Z</time>
      </trkpt>
      <trkpt lat="43.23141" lon="6.36013">
        <ele>399.4</ele>
        <time>2021-03-11T20:28:14Z</time>
      </trkpt>
      <trkpt lat="43.23133" lon="6.35881">
        <ele>405.7</ele>
        <time>2021-03-11T20:28:14Z</time>
      </trkpt>
      <trkpt lat="43.23137" lon="6.35862">
        <ele>405.9</ele>
        <time>2021-03-11T20:28:14Z</time>
      </trkpt>
      <trkpt lat="43.23149" lon="6.35827">
        <ele>406.5</ele>
        <time>2021-03-11T20:28:14Z</time>
      </trkpt>
      <trkpt lat="43.23157" lon="6.35759">
        <ele>408.4</ele>
        <time>2021-03-11T20:28:14Z</time>
      </trkpt>
      <trkpt lat="43.23155" lon="6.35739">
        <ele>409.3</ele>
        <time>2021-03-11T20:28:14Z</time>
      </trkpt>
      <trkpt lat="43.23147" lon="6.35724">
        <ele>409.6</ele>
        <time>2021-03-11T20:28:14Z</time>
      </trkpt>
      <trkpt lat="43.23139" lon="6.35717">
        <ele>408.4</ele>
        <time>2021-03-11T20:28:14Z</time>
      </trkpt>
      <trkpt lat="43.23122" lon="6.35716">
        <ele>408</ele>
        <time>2021-03-11T20:28:14Z</time>
      </trkpt>
      <trkpt lat="43.23062" lon="6.35735">
        <ele>412.3</ele>
        <time>2021-03-11T20:28:14Z</time>
      </trkpt>
      <trkpt lat="43.23" lon="6.35733">
        <ele>414</ele>
        <time>2021-03-11T20:28:14Z</time>
      </trkpt>
      <trkpt lat="43.22986" lon="6.35729">
        <ele>415.2</ele>
        <time>2021-03-11T20:28:14Z</time>
      </trkpt>
      <trkpt lat="43.22974" lon="6.35718">
        <ele>414.5</ele>
        <time>2021-03-11T20:28:14Z</time>
      </trkpt>
      <trkpt lat="43.22955" lon="6.35676">
        <ele>413</ele>
        <time>2021-03-11T20:28:14Z</time>
      </trkpt>
      <trkpt lat="43.22905" lon="6.35665">
        <ele>416.5</ele>
        <time>2021-03-11T20:28:14Z</time>
      </trkpt>
      <trkpt lat="43.22873" lon="6.35647">
        <ele>417.7</ele>
        <time>2021-03-11T20:28:14Z</time>
      </trkpt>
      <trkpt lat="43.2286" lon="6.35646">
        <ele>419.5</ele>
        <time>2021-03-11T20:28:14Z</time>
      </trkpt>
      <trkpt lat="43.22852" lon="6.35655">
        <ele>419.8</ele>
        <time>2021-03-11T20:28:14Z</time>
      </trkpt>
      <trkpt lat="43.22857" lon="6.35671">
        <ele>419.8</ele>
        <time>2021-03-11T20:28:14Z</time>
      </trkpt>
      <trkpt lat="43.22879" lon="6.35692">
        <ele>421.4</ele>
        <time>2021-03-11T20:28:14Z</time>
      </trkpt>
      <trkpt lat="43.22889" lon="6.35711">
        <ele>423.8</ele>
        <time>2021-03-11T20:28:14Z</time>
      </trkpt>
      <trkpt lat="43.22893" lon="6.3573">
        <ele>424.4</ele>
        <time>2021-03-11T20:28:14Z</time>
      </trkpt>
      <trkpt lat="43.22893" lon="6.35756">
        <ele>423.9</ele>
        <time>2021-03-11T20:28:14Z</time>
      </trkpt>
      <trkpt lat="43.22887" lon="6.35789">
        <ele>425.2</ele>
        <time>2021-03-11T20:28:14Z</time>
      </trkpt>
      <trkpt lat="43.22864" lon="6.35849">
        <ele>426.9</ele>
        <time>2021-03-11T20:28:14Z</time>
      </trkpt>
      <trkpt lat="43.22861" lon="6.35867">
        <ele>427.9</ele>
        <time>2021-03-11T20:28:14Z</time>
      </trkpt>
      <trkpt lat="43.22848" lon="6.35892">
        <ele>430.8</ele>
        <time>2021-03-11T20:28:14Z</time>
      </trkpt>
      <trkpt lat="43.2283" lon="6.35893">
        <ele>429.8</ele>
        <time>2021-03-11T20:28:14Z</time>
      </trkpt>
      <trkpt lat="43.22804" lon="6.35878">
        <ele>429.4</ele>
        <time>2021-03-11T20:28:14Z</time>
      </trkpt>
      <trkpt lat="43.22727" lon="6.3585">
        <ele>433.5</ele>
        <time>2021-03-11T20:28:14Z</time>
      </trkpt>
      <trkpt lat="43.2272" lon="6.35843">
        <ele>433.9</ele>
        <time>2021-03-11T20:28:14Z</time>
      </trkpt>
      <trkpt lat="43.2267" lon="6.35767">
        <ele>436.5</ele>
        <time>2021-03-11T20:28:14Z</time>
      </trkpt>
      <trkpt lat="43.22648" lon="6.35747">
        <ele>438.4</ele>
        <time>2021-03-11T20:28:14Z</time>
      </trkpt>
      <trkpt lat="43.22639" lon="6.35724">
        <ele>438</ele>
        <time>2021-03-11T20:28:14Z</time>
      </trkpt>
      <trkpt lat="43.22609" lon="6.35683">
        <ele>440.6</ele>
        <time>2021-03-11T20:28:14Z</time>
      </trkpt>
      <trkpt lat="43.22596" lon="6.35643">
        <ele>441.8</ele>
        <time>2021-03-11T20:28:14Z</time>
      </trkpt>
      <trkpt lat="43.22587" lon="6.35599">
        <ele>441.8</ele>
        <time>2021-03-11T20:28:14Z</time>
      </trkpt>
      <trkpt lat="43.2258" lon="6.35581">
        <ele>441.6</ele>
        <time>2021-03-11T20:28:14Z</time>
      </trkpt>
      <trkpt lat="43.22565" lon="6.35561">
        <ele>442.7</ele>
        <time>2021-03-11T20:28:14Z</time>
      </trkpt>
      <trkpt lat="43.22558" lon="6.35555">
        <ele>444</ele>
        <time>2021-03-11T20:28:14Z</time>
      </trkpt>
      <trkpt lat="43.22525" lon="6.3554">
        <ele>447.1</ele>
        <time>2021-03-11T20:28:14Z</time>
      </trkpt>
      <trkpt lat="43.22507" lon="6.35471">
        <ele>445.8</ele>
        <time>2021-03-11T20:28:14Z</time>
      </trkpt>
      <trkpt lat="43.22492" lon="6.35446">
        <ele>446.5</ele>
        <time>2021-03-11T20:28:14Z</time>
      </trkpt>
      <trkpt lat="43.22491" lon="6.35436">
        <ele>446.9</ele>
        <time>2021-03-11T20:28:14Z</time>
      </trkpt>
      <trkpt lat="43.22492" lon="6.35422">
        <ele>446.7</ele>
        <time>2021-03-11T20:28:14Z</time>
      </trkpt>
      <trkpt lat="43.22518" lon="6.3536">
        <ele>447.8</ele>
        <time>2021-03-11T20:28:14Z</time>
      </trkpt>
      <trkpt lat="43.22519" lon="6.35347">
        <ele>447.6</ele>
        <time>2021-03-11T20:28:14Z</time>
      </trkpt>
      <trkpt lat="43.22515" lon="6.35312">
        <ele>446</ele>
        <time>2021-03-11T20:28:14Z</time>
      </trkpt>
      <trkpt lat="43.2249" lon="6.35191">
        <ele>442.6</ele>
        <time>2021-03-11T20:28:14Z</time>
      </trkpt>
      <trkpt lat="43.22488" lon="6.35178">
        <ele>442.3</ele>
        <time>2021-03-11T20:28:14Z</time>
      </trkpt>
      <trkpt lat="43.2249" lon="6.35166">
        <ele>442</ele>
        <time>2021-03-11T20:28:14Z</time>
      </trkpt>
      <trkpt lat="43.22495" lon="6.35153">
        <ele>442.3</ele>
        <time>2021-03-11T20:28:14Z</time>
      </trkpt>
      <trkpt lat="43.22505" lon="6.35146">
        <ele>441.8</ele>
        <time>2021-03-11T20:28:14Z</time>
      </trkpt>
      <trkpt lat="43.22541" lon="6.35167">
        <ele>441.4</ele>
        <time>2021-03-11T20:28:14Z</time>
      </trkpt>
      <trkpt lat="43.22563" lon="6.35172">
        <ele>443.8</ele>
        <time>2021-03-11T20:28:14Z</time>
      </trkpt>
      <trkpt lat="43.22554" lon="6.35123">
        <ele>443.5</ele>
        <time>2021-03-11T20:28:14Z</time>
      </trkpt>
      <trkpt lat="43.22549" lon="6.35112">
        <ele>443.5</ele>
        <time>2021-03-11T20:28:14Z</time>
      </trkpt>
      <trkpt lat="43.22524" lon="6.35088">
        <ele>443.6</ele>
        <time>2021-03-11T20:28:14Z</time>
      </trkpt>
      <trkpt lat="43.22442" lon="6.35038">
        <ele>444.6</ele>
        <time>2021-03-11T20:28:14Z</time>
      </trkpt>
      <trkpt lat="43.22376" lon="6.35014">
        <ele>446</ele>
        <time>2021-03-11T20:28:14Z</time>
      </trkpt>
      <trkpt lat="43.22352" lon="6.34998">
        <ele>446.1</ele>
        <time>2021-03-11T20:28:14Z</time>
      </trkpt>
      <trkpt lat="43.22303" lon="6.34944">
        <ele>448</ele>
        <time>2021-03-11T20:28:14Z</time>
      </trkpt>
      <trkpt lat="43.22294" lon="6.34908">
        <ele>449.8</ele>
        <time>2021-03-11T20:28:14Z</time>
      </trkpt>
      <trkpt lat="43.22296" lon="6.34775">
        <ele>453.9</ele>
        <time>2021-03-11T20:28:14Z</time>
      </trkpt>
      <trkpt lat="43.22302" lon="6.34713">
        <ele>456.4</ele>
        <time>2021-03-11T20:28:14Z</time>
      </trkpt>
      <trkpt lat="43.22296" lon="6.347">
        <ele>457.1</ele>
        <time>2021-03-11T20:28:14Z</time>
      </trkpt>
      <trkpt lat="43.22284" lon="6.34696">
        <ele>457.7</ele>
        <time>2021-03-11T20:28:14Z</time>
      </trkpt>
      <trkpt lat="43.22265" lon="6.34705">
        <ele>457.7</ele>
        <time>2021-03-11T20:28:14Z</time>
      </trkpt>
      <trkpt lat="43.22256" lon="6.34705">
        <ele>458</ele>
        <time>2021-03-11T20:28:14Z</time>
      </trkpt>
      <trkpt lat="43.22249" lon="6.34701">
        <ele>458.5</ele>
        <time>2021-03-11T20:28:14Z</time>
      </trkpt>
      <trkpt lat="43.22233" lon="6.34686">
        <ele>459.4</ele>
        <time>2021-03-11T20:28:14Z</time>
      </trkpt>
      <trkpt lat="43.22152" lon="6.34558">
        <ele>465.4</ele>
        <time>2021-03-11T20:28:14Z</time>
      </trkpt>
      <trkpt lat="43.22141" lon="6.34522">
        <ele>465</ele>
        <time>2021-03-11T20:28:14Z</time>
      </trkpt>
      <trkpt lat="43.22095" lon="6.34471">
        <ele>467.2</ele>
        <time>2021-03-11T20:28:14Z</time>
      </trkpt>
      <trkpt lat="43.22089" lon="6.34448">
        <ele>468.9</ele>
        <time>2021-03-11T20:28:14Z</time>
      </trkpt>
      <trkpt lat="43.22082" lon="6.34432">
        <ele>468.8</ele>
        <time>2021-03-11T20:28:14Z</time>
      </trkpt>
      <trkpt lat="43.22046" lon="6.34407">
        <ele>471.9</ele>
        <time>2021-03-11T20:28:14Z</time>
      </trkpt>
      <trkpt lat="43.22038" lon="6.34398">
        <ele>472.1</ele>
        <time>2021-03-11T20:28:14Z</time>
      </trkpt>
      <trkpt lat="43.22022" lon="6.34351">
        <ele>473.8</ele>
        <time>2021-03-11T20:28:14Z</time>
      </trkpt>
      <trkpt lat="43.22003" lon="6.34322">
        <ele>473.7</ele>
        <time>2021-03-11T20:28:14Z</time>
      </trkpt>
      <trkpt lat="43.22001" lon="6.3431">
        <ele>473.8</ele>
        <time>2021-03-11T20:28:14Z</time>
      </trkpt>
      <trkpt lat="43.21999" lon="6.34273">
        <ele>474.1</ele>
        <time>2021-03-11T20:28:14Z</time>
      </trkpt>
      <trkpt lat="43.21988" lon="6.34253">
        <ele>475.1</ele>
        <time>2021-03-11T20:28:14Z</time>
      </trkpt>
      <trkpt lat="43.21962" lon="6.34239">
        <ele>476.4</ele>
        <time>2021-03-11T20:28:14Z</time>
      </trkpt>
      <trkpt lat="43.21934" lon="6.34197">
        <ele>478.5</ele>
        <time>2021-03-11T20:28:14Z</time>
      </trkpt>
      <trkpt lat="43.21925" lon="6.34177">
        <ele>478.6</ele>
        <time>2021-03-11T20:28:14Z</time>
      </trkpt>
      <trkpt lat="43.21918" lon="6.34139">
        <ele>479.3</ele>
        <time>2021-03-11T20:28:14Z</time>
      </trkpt>
      <trkpt lat="43.21919" lon="6.34097">
        <ele>479.9</ele>
        <time>2021-03-11T20:28:14Z</time>
      </trkpt>
      <trkpt lat="43.21922" lon="6.34083">
        <ele>480.2</ele>
        <time>2021-03-11T20:28:14Z</time>
      </trkpt>
      <trkpt lat="43.21946" lon="6.34042">
        <ele>483.8</ele>
        <time>2021-03-11T20:28:14Z</time>
      </trkpt>
      <trkpt lat="43.21947" lon="6.3401">
        <ele>484.5</ele>
        <time>2021-03-11T20:28:14Z</time>
      </trkpt>
      <trkpt lat="43.21899" lon="6.33845">
        <ele>486.5</ele>
        <time>2021-03-11T20:28:14Z</time>
      </trkpt>
      <trkpt lat="43.21883" lon="6.33816">
        <ele>484.5</ele>
        <time>2021-03-11T20:28:14Z</time>
      </trkpt>
      <trkpt lat="43.21873" lon="6.33804">
        <ele>484</ele>
        <time>2021-03-11T20:28:14Z</time>
      </trkpt>
      <trkpt lat="43.21866" lon="6.338">
        <ele>483.8</ele>
        <time>2021-03-11T20:28:14Z</time>
      </trkpt>
      <trkpt lat="43.21728" lon="6.33742">
        <ele>478.9</ele>
        <time>2021-03-11T20:28:14Z</time>
      </trkpt>
      <trkpt lat="43.21674" lon="6.33693">
        <ele>477.6</ele>
        <time>2021-03-11T20:28:14Z</time>
      </trkpt>
      <trkpt lat="43.2165" lon="6.33654">
        <ele>475.5</ele>
        <time>2021-03-11T20:28:14Z</time>
      </trkpt>
      <trkpt lat="43.21642" lon="6.33647">
        <ele>474.6</ele>
        <time>2021-03-11T20:28:14Z</time>
      </trkpt>
      <trkpt lat="43.21634" lon="6.33644">
        <ele>473.5</ele>
        <time>2021-03-11T20:28:14Z</time>
      </trkpt>
      <trkpt lat="43.21619" lon="6.33647">
        <ele>471.7</ele>
        <time>2021-03-11T20:28:14Z</time>
      </trkpt>
      <trkpt lat="43.21637" lon="6.33645">
        <ele>474</ele>
        <time>2021-03-11T20:28:14Z</time>
      </trkpt>
      <trkpt lat="43.21641" lon="6.33577">
        <ele>472.2</ele>
        <time>2021-03-11T20:28:14Z</time>
      </trkpt>
      <trkpt lat="43.21645" lon="6.33562">
        <ele>472.5</ele>
        <time>2021-03-11T20:28:14Z</time>
      </trkpt>
      <trkpt lat="43.21645" lon="6.33531">
        <ele>470.8</ele>
        <time>2021-03-11T20:28:14Z</time>
      </trkpt>
      <trkpt lat="43.21654" lon="6.33489">
        <ele>466.6</ele>
        <time>2021-03-11T20:28:14Z</time>
      </trkpt>
      <trkpt lat="43.21659" lon="6.33477">
        <ele>465</ele>
        <time>2021-03-11T20:28:14Z</time>
      </trkpt>
      <trkpt lat="43.21672" lon="6.3346">
        <ele>463.6</ele>
        <time>2021-03-11T20:28:14Z</time>
      </trkpt>
      <trkpt lat="43.21687" lon="6.33457">
        <ele>467.8</ele>
        <time>2021-03-11T20:28:14Z</time>
      </trkpt>
      <trkpt lat="43.21692" lon="6.33444">
        <ele>467.8</ele>
        <time>2021-03-11T20:28:14Z</time>
      </trkpt>
      <trkpt lat="43.21759" lon="6.33399">
        <ele>461.2</ele>
        <time>2021-03-11T20:28:14Z</time>
      </trkpt>
      <trkpt lat="43.2178" lon="6.3337">
        <ele>454</ele>
        <time>2021-03-11T20:28:14Z</time>
      </trkpt>
      <trkpt lat="43.21787" lon="6.33365">
        <ele>453.2</ele>
        <time>2021-03-11T20:28:14Z</time>
      </trkpt>
      <trkpt lat="43.21797" lon="6.33361">
        <ele>453.4</ele>
        <time>2021-03-11T20:28:14Z</time>
      </trkpt>
      <trkpt lat="43.21814" lon="6.33349">
        <ele>450.9</ele>
        <time>2021-03-11T20:28:14Z</time>
      </trkpt>
      <trkpt lat="43.2182" lon="6.33336">
        <ele>445.8</ele>
        <time>2021-03-11T20:28:14Z</time>
      </trkpt>
      <trkpt lat="43.21836" lon="6.33317">
        <ele>445.1</ele>
        <time>2021-03-11T20:28:14Z</time>
      </trkpt>
      <trkpt lat="43.21847" lon="6.33291">
        <ele>447.2</ele>
        <time>2021-03-11T20:28:14Z</time>
      </trkpt>
      <trkpt lat="43.21854" lon="6.33281">
        <ele>449.3</ele>
        <time>2021-03-11T20:28:14Z</time>
      </trkpt>
      <trkpt lat="43.21855" lon="6.3327">
        <ele>448.1</ele>
        <time>2021-03-11T20:28:14Z</time>
      </trkpt>
      <trkpt lat="43.21874" lon="6.33225">
        <ele>445.4</ele>
        <time>2021-03-11T20:28:14Z</time>
      </trkpt>
      <trkpt lat="43.21888" lon="6.3321">
        <ele>445.4</ele>
        <time>2021-03-11T20:28:14Z</time>
      </trkpt>
      <trkpt lat="43.219" lon="6.33206">
        <ele>444.9</ele>
        <time>2021-03-11T20:28:14Z</time>
      </trkpt>
      <trkpt lat="43.21942" lon="6.33213">
        <ele>447</ele>
        <time>2021-03-11T20:28:14Z</time>
      </trkpt>
      <trkpt lat="43.21961" lon="6.33224">
        <ele>447.4</ele>
        <time>2021-03-11T20:28:14Z</time>
      </trkpt>
      <trkpt lat="43.21998" lon="6.33256">
        <ele>450.2</ele>
        <time>2021-03-11T20:28:14Z</time>
      </trkpt>
      <trkpt lat="43.22015" lon="6.33261">
        <ele>448.4</ele>
        <time>2021-03-11T20:28:14Z</time>
      </trkpt>
      <trkpt lat="43.22032" lon="6.33274">
        <ele>447.9</ele>
        <time>2021-03-11T20:28:14Z</time>
      </trkpt>
      <trkpt lat="43.22095" lon="6.33278">
        <ele>453.5</ele>
        <time>2021-03-11T20:28:14Z</time>
      </trkpt>
      <trkpt lat="43.22112" lon="6.33268">
        <ele>456.4</ele>
        <time>2021-03-11T20:28:14Z</time>
      </trkpt>
      <trkpt lat="43.22119" lon="6.33256">
        <ele>456.9</ele>
        <time>2021-03-11T20:28:14Z</time>
      </trkpt>
      <trkpt lat="43.22159" lon="6.33223">
        <ele>458.5</ele>
        <time>2021-03-11T20:28:14Z</time>
      </trkpt>
      <trkpt lat="43.22225" lon="6.33209">
        <ele>459.2</ele>
        <time>2021-03-11T20:28:14Z</time>
      </trkpt>
      <trkpt lat="43.22239" lon="6.332">
        <ele>457.3</ele>
        <time>2021-03-11T20:28:14Z</time>
      </trkpt>
      <trkpt lat="43.22258" lon="6.33191">
        <ele>457.1</ele>
        <time>2021-03-11T20:28:14Z</time>
      </trkpt>
      <trkpt lat="43.22271" lon="6.33176">
        <ele>456.4</ele>
        <time>2021-03-11T20:28:14Z</time>
      </trkpt>
      <trkpt lat="43.22303" lon="6.3311">
        <ele>448.2</ele>
        <time>2021-03-11T20:28:14Z</time>
      </trkpt>
      <trkpt lat="43.22354" lon="6.33058">
        <ele>432.8</ele>
        <time>2021-03-11T20:28:14Z</time>
      </trkpt>
      <trkpt lat="43.22356" lon="6.33046">
        <ele>431.5</ele>
        <time>2021-03-11T20:28:14Z</time>
      </trkpt>
      <trkpt lat="43.22356" lon="6.32967">
        <ele>423</ele>
        <time>2021-03-11T20:28:14Z</time>
      </trkpt>
      <trkpt lat="43.22333" lon="6.3288">
        <ele>413.8</ele>
        <time>2021-03-11T20:28:14Z</time>
      </trkpt>
      <trkpt lat="43.22306" lon="6.32839">
        <ele>407.3</ele>
        <time>2021-03-11T20:28:14Z</time>
      </trkpt>
      <trkpt lat="43.22308" lon="6.32826">
        <ele>404.1</ele>
        <time>2021-03-11T20:28:14Z</time>
      </trkpt>
      <trkpt lat="43.22315" lon="6.32818">
        <ele>401.4</ele>
        <time>2021-03-11T20:28:14Z</time>
      </trkpt>
      <trkpt lat="43.22323" lon="6.32814">
        <ele>399.5</ele>
        <time>2021-03-11T20:28:14Z</time>
      </trkpt>
      <trkpt lat="43.22352" lon="6.32814">
        <ele>396.4</ele>
        <time>2021-03-11T20:28:14Z</time>
      </trkpt>
      <trkpt lat="43.22387" lon="6.32822">
        <ele>391.2</ele>
        <time>2021-03-11T20:28:14Z</time>
      </trkpt>
      <trkpt lat="43.22464" lon="6.32806">
        <ele>376.9</ele>
        <time>2021-03-11T20:28:14Z</time>
      </trkpt>
      <trkpt lat="43.22491" lon="6.32794">
        <ele>370.5</ele>
        <time>2021-03-11T20:28:14Z</time>
      </trkpt>
      <trkpt lat="43.225" lon="6.32792">
        <ele>369.2</ele>
        <time>2021-03-11T20:28:14Z</time>
      </trkpt>
      <trkpt lat="43.22513" lon="6.32795">
        <ele>366.5</ele>
        <time>2021-03-11T20:28:14Z</time>
      </trkpt>
      <trkpt lat="43.22539" lon="6.32786">
        <ele>363</ele>
        <time>2021-03-11T20:28:14Z</time>
      </trkpt>
      <trkpt lat="43.22599" lon="6.32724">
        <ele>366.7</ele>
        <time>2021-03-11T20:28:14Z</time>
      </trkpt>
      <trkpt lat="43.22608" lon="6.3271">
        <ele>367</ele>
        <time>2021-03-11T20:28:14Z</time>
      </trkpt>
      <trkpt lat="43.22658" lon="6.3257">
        <ele>364.5</ele>
        <time>2021-03-11T20:28:14Z</time>
      </trkpt>
      <trkpt lat="43.22663" lon="6.3255">
        <ele>364</ele>
        <time>2021-03-11T20:28:14Z</time>
      </trkpt>
      <trkpt lat="43.22685" lon="6.32528">
        <ele>371.7</ele>
        <time>2021-03-11T20:28:14Z</time>
      </trkpt>
      <trkpt lat="43.22732" lon="6.32424">
        <ele>374.6</ele>
        <time>2021-03-11T20:28:14Z</time>
      </trkpt>
      <trkpt lat="43.22735" lon="6.3241">
        <ele>374.4</ele>
        <time>2021-03-11T20:28:14Z</time>
      </trkpt>
      <trkpt lat="43.22737" lon="6.32367">
        <ele>374</ele>
        <time>2021-03-11T20:28:14Z</time>
      </trkpt>
      <trkpt lat="43.22752" lon="6.32337">
        <ele>374.7</ele>
        <time>2021-03-11T20:28:14Z</time>
      </trkpt>
      <trkpt lat="43.22758" lon="6.32317">
        <ele>374</ele>
        <time>2021-03-11T20:28:14Z</time>
      </trkpt>
      <trkpt lat="43.22757" lon="6.32283">
        <ele>372.2</ele>
        <time>2021-03-11T20:28:14Z</time>
      </trkpt>
      <trkpt lat="43.22761" lon="6.32268">
        <ele>375.1</ele>
        <time>2021-03-11T20:28:14Z</time>
      </trkpt>
      <trkpt lat="43.22758" lon="6.32198">
        <ele>374.2</ele>
        <time>2021-03-11T20:28:14Z</time>
      </trkpt>
      <trkpt lat="43.2274" lon="6.32146">
        <ele>372.7</ele>
        <time>2021-03-11T20:28:14Z</time>
      </trkpt>
      <trkpt lat="43.22726" lon="6.32123">
        <ele>371.8</ele>
        <time>2021-03-11T20:28:14Z</time>
      </trkpt>
      <trkpt lat="43.22719" lon="6.32114">
        <ele>370.4</ele>
        <time>2021-03-11T20:28:14Z</time>
      </trkpt>
      <trkpt lat="43.22715" lon="6.32105">
        <ele>369.6</ele>
        <time>2021-03-11T20:28:14Z</time>
      </trkpt>
      <trkpt lat="43.22714" lon="6.32095">
        <ele>369.3</ele>
        <time>2021-03-11T20:28:14Z</time>
      </trkpt>
      <trkpt lat="43.22721" lon="6.32065">
        <ele>368.2</ele>
        <time>2021-03-11T20:28:14Z</time>
      </trkpt>
      <trkpt lat="43.2276" lon="6.31993">
        <ele>370.4</ele>
        <time>2021-03-11T20:28:14Z</time>
      </trkpt>
      <trkpt lat="43.22813" lon="6.31938">
        <ele>372.5</ele>
        <time>2021-03-11T20:28:14Z</time>
      </trkpt>
      <trkpt lat="43.22817" lon="6.31924">
        <ele>371</ele>
        <time>2021-03-11T20:28:14Z</time>
      </trkpt>
      <trkpt lat="43.22817" lon="6.31903">
        <ele>368.7</ele>
        <time>2021-03-11T20:28:14Z</time>
      </trkpt>
      <trkpt lat="43.22814" lon="6.31892">
        <ele>366.6</ele>
        <time>2021-03-11T20:28:14Z</time>
      </trkpt>
      <trkpt lat="43.22814" lon="6.31879">
        <ele>365.1</ele>
        <time>2021-03-11T20:28:14Z</time>
      </trkpt>
      <trkpt lat="43.2282" lon="6.31864">
        <ele>366.2</ele>
        <time>2021-03-11T20:28:14Z</time>
      </trkpt>
      <trkpt lat="43.22822" lon="6.31813">
        <ele>362.1</ele>
        <time>2021-03-11T20:28:14Z</time>
      </trkpt>
      <trkpt lat="43.22827" lon="6.3179">
        <ele>362.8</ele>
        <time>2021-03-11T20:28:14Z</time>
      </trkpt>
      <trkpt lat="43.22827" lon="6.31778">
        <ele>362.2</ele>
        <time>2021-03-11T20:28:14Z</time>
      </trkpt>
      <trkpt lat="43.22839" lon="6.31751">
        <ele>361.3</ele>
        <time>2021-03-11T20:28:14Z</time>
      </trkpt>
      <trkpt lat="43.22866" lon="6.31736">
        <ele>360.4</ele>
        <time>2021-03-11T20:28:14Z</time>
      </trkpt>
      <trkpt lat="43.22857" lon="6.31716">
        <ele>360.8</ele>
        <time>2021-03-11T20:28:14Z</time>
      </trkpt>
      <trkpt lat="43.22856" lon="6.31706">
        <ele>360.7</ele>
        <time>2021-03-11T20:28:14Z</time>
      </trkpt>
      <trkpt lat="43.22857" lon="6.31716">
        <ele>360.8</ele>
        <time>2021-03-11T20:28:14Z</time>
      </trkpt>
      <trkpt lat="43.2287" lon="6.31741">
        <ele>360.1</ele>
        <time>2021-03-11T20:28:14Z</time>
      </trkpt>
      <trkpt lat="43.22878" lon="6.31738">
        <ele>358.1</ele>
        <time>2021-03-11T20:28:14Z</time>
      </trkpt>
      <trkpt lat="43.22885" lon="6.31733">
        <ele>355.9</ele>
        <time>2021-03-11T20:28:14Z</time>
      </trkpt>
      <trkpt lat="43.2289" lon="6.31722">
        <ele>352.8</ele>
        <time>2021-03-11T20:28:14Z</time>
      </trkpt>
      <trkpt lat="43.22903" lon="6.31706">
        <ele>349.3</ele>
        <time>2021-03-11T20:28:14Z</time>
      </trkpt>
      <trkpt lat="43.22907" lon="6.31696">
        <ele>348.8</ele>
        <time>2021-03-11T20:28:14Z</time>
      </trkpt>
      <trkpt lat="43.22917" lon="6.3164">
        <ele>341.8</ele>
        <time>2021-03-11T20:28:14Z</time>
      </trkpt>
      <trkpt lat="43.22926" lon="6.31617">
        <ele>338.7</ele>
        <time>2021-03-11T20:28:14Z</time>
      </trkpt>
      <trkpt lat="43.22928" lon="6.31604">
        <ele>338.6</ele>
        <time>2021-03-11T20:28:14Z</time>
      </trkpt>
      <trkpt lat="43.22932" lon="6.31596">
        <ele>337.3</ele>
        <time>2021-03-11T20:28:14Z</time>
      </trkpt>
      <trkpt lat="43.2294" lon="6.31597">
        <ele>334.2</ele>
        <time>2021-03-11T20:28:14Z</time>
      </trkpt>
      <trkpt lat="43.22947" lon="6.31602">
        <ele>331.3</ele>
        <time>2021-03-11T20:28:14Z</time>
      </trkpt>
      <trkpt lat="43.22968" lon="6.31599">
        <ele>326.4</ele>
        <time>2021-03-11T20:28:14Z</time>
      </trkpt>
      <trkpt lat="43.22976" lon="6.31591">
        <ele>324.8</ele>
        <time>2021-03-11T20:28:14Z</time>
      </trkpt>
      <trkpt lat="43.22992" lon="6.31582">
        <ele>320.5</ele>
        <time>2021-03-11T20:28:14Z</time>
      </trkpt>
      <trkpt lat="43.23013" lon="6.31556">
        <ele>315.2</ele>
        <time>2021-03-11T20:28:14Z</time>
      </trkpt>
      <trkpt lat="43.23024" lon="6.31553">
        <ele>312.3</ele>
        <time>2021-03-11T20:28:14Z</time>
      </trkpt>
      <trkpt lat="43.23043" lon="6.31534">
        <ele>310.7</ele>
        <time>2021-03-11T20:28:14Z</time>
      </trkpt>
      <trkpt lat="43.2306" lon="6.31526">
        <ele>310.1</ele>
        <time>2021-03-11T20:28:14Z</time>
      </trkpt>
      <trkpt lat="43.23088" lon="6.31526">
        <ele>306.5</ele>
        <time>2021-03-11T20:28:14Z</time>
      </trkpt>
      <trkpt lat="43.23097" lon="6.31522">
        <ele>305.5</ele>
        <time>2021-03-11T20:28:14Z</time>
      </trkpt>
      <trkpt lat="43.23106" lon="6.31526">
        <ele>305.2</ele>
        <time>2021-03-11T20:28:14Z</time>
      </trkpt>
      <trkpt lat="43.23114" lon="6.31532">
        <ele>303.5</ele>
        <time>2021-03-11T20:28:14Z</time>
      </trkpt>
      <trkpt lat="43.23122" lon="6.31535">
        <ele>301.9</ele>
        <time>2021-03-11T20:28:14Z</time>
      </trkpt>
      <trkpt lat="43.2313" lon="6.31535">
        <ele>301</ele>
        <time>2021-03-11T20:28:14Z</time>
      </trkpt>
      <trkpt lat="43.23138" lon="6.31538">
        <ele>299.7</ele>
        <time>2021-03-11T20:28:14Z</time>
      </trkpt>
      <trkpt lat="43.23165" lon="6.31526">
        <ele>291.6</ele>
        <time>2021-03-11T20:28:14Z</time>
      </trkpt>
      <trkpt lat="43.23181" lon="6.31513">
        <ele>286.1</ele>
        <time>2021-03-11T20:28:14Z</time>
      </trkpt>
      <trkpt lat="43.23199" lon="6.31473">
        <ele>280</ele>
        <time>2021-03-11T20:28:14Z</time>
      </trkpt>
      <trkpt lat="43.23214" lon="6.31457">
        <ele>276.7</ele>
        <time>2021-03-11T20:28:14Z</time>
      </trkpt>
      <trkpt lat="43.23222" lon="6.31453">
        <ele>276</ele>
        <time>2021-03-11T20:28:14Z</time>
      </trkpt>
      <trkpt lat="43.23229" lon="6.31446">
        <ele>276.5</ele>
        <time>2021-03-11T20:28:14Z</time>
      </trkpt>
      <trkpt lat="43.23237" lon="6.31441">
        <ele>276.1</ele>
        <time>2021-03-11T20:28:14Z</time>
      </trkpt>
      <trkpt lat="43.23243" lon="6.31434">
        <ele>275.4</ele>
        <time>2021-03-11T20:28:14Z</time>
      </trkpt>
      <trkpt lat="43.23251" lon="6.31436">
        <ele>275.4</ele>
        <time>2021-03-11T20:28:14Z</time>
      </trkpt>
      <trkpt lat="43.23262" lon="6.31443">
        <ele>275.9</ele>
        <time>2021-03-11T20:28:14Z</time>
      </trkpt>
      <trkpt lat="43.2327" lon="6.31445">
        <ele>275.9</ele>
        <time>2021-03-11T20:28:14Z</time>
      </trkpt>
      <trkpt lat="43.23287" lon="6.31439">
        <ele>274.1</ele>
        <time>2021-03-11T20:28:14Z</time>
      </trkpt>
      <trkpt lat="43.23295" lon="6.31439">
        <ele>273</ele>
        <time>2021-03-11T20:28:14Z</time>
      </trkpt>
      <trkpt lat="43.23311" lon="6.31432">
        <ele>269.3</ele>
        <time>2021-03-11T20:28:14Z</time>
      </trkpt>
      <trkpt lat="43.23328" lon="6.31416">
        <ele>263.3</ele>
        <time>2021-03-11T20:28:14Z</time>
      </trkpt>
      <trkpt lat="43.23336" lon="6.31414">
        <ele>260.6</ele>
        <time>2021-03-11T20:28:14Z</time>
      </trkpt>
      <trkpt lat="43.23344" lon="6.31415">
        <ele>258.4</ele>
        <time>2021-03-11T20:28:14Z</time>
      </trkpt>
      <trkpt lat="43.23352" lon="6.3141">
        <ele>255.5</ele>
        <time>2021-03-11T20:28:14Z</time>
      </trkpt>
      <trkpt lat="43.23358" lon="6.31402">
        <ele>253.6</ele>
        <time>2021-03-11T20:28:14Z</time>
      </trkpt>
      <trkpt lat="43.23373" lon="6.31393">
        <ele>248.7</ele>
        <time>2021-03-11T20:28:14Z</time>
      </trkpt>
      <trkpt lat="43.23379" lon="6.31386">
        <ele>246.3</ele>
        <time>2021-03-11T20:28:14Z</time>
      </trkpt>
      <trkpt lat="43.23387" lon="6.31386">
        <ele>243.5</ele>
        <time>2021-03-11T20:28:14Z</time>
      </trkpt>
      <trkpt lat="43.23394" lon="6.31393">
        <ele>240.3</ele>
        <time>2021-03-11T20:28:14Z</time>
      </trkpt>
      <trkpt lat="43.23402" lon="6.31396">
        <ele>236.6</ele>
        <time>2021-03-11T20:28:14Z</time>
      </trkpt>
      <trkpt lat="43.23421" lon="6.31391">
        <ele>229.4</ele>
        <time>2021-03-11T20:28:14Z</time>
      </trkpt>
      <trkpt lat="43.23433" lon="6.31378">
        <ele>224.2</ele>
        <time>2021-03-11T20:28:14Z</time>
      </trkpt>
      <trkpt lat="43.23438" lon="6.31368">
        <ele>223.2</ele>
        <time>2021-03-11T20:28:14Z</time>
      </trkpt>
      <trkpt lat="43.2348" lon="6.31322">
        <ele>210.9</ele>
        <time>2021-03-11T20:28:14Z</time>
      </trkpt>
      <trkpt lat="43.23486" lon="6.3131">
        <ele>210.4</ele>
        <time>2021-03-11T20:28:14Z</time>
      </trkpt>
      <trkpt lat="43.23496" lon="6.31293">
        <ele>209</ele>
        <time>2021-03-11T20:28:14Z</time>
      </trkpt>
      <trkpt lat="43.23507" lon="6.31288">
        <ele>207.3</ele>
        <time>2021-03-11T20:28:14Z</time>
      </trkpt>
      <trkpt lat="43.23534" lon="6.31265">
        <ele>201.7</ele>
        <time>2021-03-11T20:28:14Z</time>
      </trkpt>
      <trkpt lat="43.23554" lon="6.31235">
        <ele>197.5</ele>
        <time>2021-03-11T20:28:14Z</time>
      </trkpt>
      <trkpt lat="43.2362" lon="6.312">
        <ele>187.7</ele>
        <time>2021-03-11T20:28:14Z</time>
      </trkpt>
      <trkpt lat="43.23656" lon="6.3119">
        <ele>183.7</ele>
        <time>2021-03-11T20:28:14Z</time>
      </trkpt>
      <trkpt lat="43.23667" lon="6.3119">
        <ele>181.8</ele>
        <time>2021-03-11T20:28:14Z</time>
      </trkpt>
      <trkpt lat="43.23679" lon="6.31178">
        <ele>179.8</ele>
        <time>2021-03-11T20:28:14Z</time>
      </trkpt>
      <trkpt lat="43.23681" lon="6.31165">
        <ele>182.1</ele>
        <time>2021-03-11T20:28:14Z</time>
      </trkpt>
      <trkpt lat="43.23671" lon="6.31149">
        <ele>180.9</ele>
        <time>2021-03-11T20:28:14Z</time>
      </trkpt>
      <trkpt lat="43.23688" lon="6.31156">
        <ele>179.1</ele>
        <time>2021-03-11T20:28:14Z</time>
      </trkpt>
      <trkpt lat="43.23696" lon="6.31148">
        <ele>177.1</ele>
        <time>2021-03-11T20:28:14Z</time>
      </trkpt>
      <trkpt lat="43.23699" lon="6.31105">
        <ele>169.2</ele>
        <time>2021-03-11T20:28:14Z</time>
      </trkpt>
      <trkpt lat="43.23702" lon="6.31095">
        <ele>167.4</ele>
        <time>2021-03-11T20:28:14Z</time>
      </trkpt>
      <trkpt lat="43.23687" lon="6.31082">
        <ele>164.4</ele>
        <time>2021-03-11T20:28:14Z</time>
      </trkpt>
      <trkpt lat="43.23691" lon="6.31069">
        <ele>163.2</ele>
        <time>2021-03-11T20:28:14Z</time>
      </trkpt>
      <trkpt lat="43.237" lon="6.31066">
        <ele>162.8</ele>
        <time>2021-03-11T20:28:14Z</time>
      </trkpt>
      <trkpt lat="43.23701" lon="6.31055">
        <ele>161.5</ele>
        <time>2021-03-11T20:28:14Z</time>
      </trkpt>
      <trkpt lat="43.23707" lon="6.31036">
        <ele>159.7</ele>
        <time>2021-03-11T20:28:14Z</time>
      </trkpt>
      <trkpt lat="43.23716" lon="6.31023">
        <ele>158.4</ele>
        <time>2021-03-11T20:28:14Z</time>
      </trkpt>
      <trkpt lat="43.23719" lon="6.31003">
        <ele>158</ele>
        <time>2021-03-11T20:28:14Z</time>
      </trkpt>
      <trkpt lat="43.2376" lon="6.30964">
        <ele>154.3</ele>
        <time>2021-03-11T20:28:14Z</time>
      </trkpt>
      <trkpt lat="43.23796" lon="6.30926">
        <ele>151.4</ele>
        <time>2021-03-11T20:28:14Z</time>
      </trkpt>
      <trkpt lat="43.23685" lon="6.30799">
        <ele>151.6</ele>
        <time>2021-03-11T20:28:14Z</time>
      </trkpt>
      <trkpt lat="43.23678" lon="6.30794">
        <ele>151.5</ele>
        <time>2021-03-11T20:28:14Z</time>
      </trkpt>
      <trkpt lat="43.23694" lon="6.30749">
        <ele>151</ele>
        <time>2021-03-11T20:28:14Z</time>
      </trkpt>
      <trkpt lat="43.23663" lon="6.30666">
        <ele>151.6</ele>
        <time>2021-03-11T20:28:14Z</time>
      </trkpt>
      <trkpt lat="43.23661" lon="6.30632">
        <ele>152.5</ele>
        <time>2021-03-11T20:28:14Z</time>
      </trkpt>
      <trkpt lat="43.23693" lon="6.30489">
        <ele>155.9</ele>
        <time>2021-03-11T20:28:14Z</time>
      </trkpt>
      <trkpt lat="43.23716" lon="6.3042">
        <ele>153.7</ele>
        <time>2021-03-11T20:28:14Z</time>
      </trkpt>
      <trkpt lat="43.23714" lon="6.30397">
        <ele>151.9</ele>
        <time>2021-03-11T20:28:14Z</time>
      </trkpt>
      <trkpt lat="43.23752" lon="6.3028">
        <ele>148.1</ele>
        <time>2021-03-11T20:28:14Z</time>
      </trkpt>
      <trkpt lat="43.23765" lon="6.30252">
        <ele>146.6</ele>
        <time>2021-03-11T20:28:14Z</time>
      </trkpt>
    </trkseg>
  </trk>
</gpx>